Wetterdaten: Samstag, 14.07.2018
Datum Zeit Temp. Aussen Temp. o. S. +5cm Feuchte Auss Luftdruck Regen Sonnenschein Regendauer Solar Windben Empfang
14.07.2018 00:00 20,3 C 19,4 C 18,9 C 73 % 1017,6 hPa 0,0 l/m 0 min 0 min 0 W/m 6,8 km/h (2 Bft) 93,62 %
14.07.2018 00:02 20,3 C 19,4 C 18,9 C 73 % 1017,6 hPa 0,0 l/m 0 min 0 min 0 W/m 6,8 km/h (2 Bft) 95,35 %
14.07.2018 00:04 20,3 C 19,4 C 18,9 C 73 % 1017,7 hPa 0,0 l/m 0 min 0 min 0 W/m 11,3 km/h (2 Bft) 95,74 %
14.07.2018 00:08 20,2 C 19,4 C 18,9 C 73 % 1017,7 hPa 0,0 l/m 0 min 0 min 0 W/m 9,0 km/h (2 Bft) 96,39 %
14.07.2018 00:10 20,2 C 19,4 C 18,3 C 73 % 1017,8 hPa 0,0 l/m 0 min 0 min 0 W/m 4,5 km/h (1 Bft) 95,74 %
14.07.2018 00:12 20,2 C 18,9 C 18,3 C 73 % 1017,7 hPa 0,0 l/m 0 min 0 min 0 W/m 2,3 km/h (1 Bft) 93,62 %
14.07.2018 00:14 20,2 C 18,9 C 18,3 C 73 % 1017,5 hPa 0,0 l/m 0 min 0 min 0 W/m 9,0 km/h (2 Bft) 93,62 %
14.07.2018 00:16 20,2 C 18,9 C 18,3 C 73 % 1017,5 hPa 0,0 l/m 0 min 0 min 0 W/m 4,5 km/h (1 Bft) 93,48 %
14.07.2018 00:18 20,2 C 18,9 C 18,3 C 73 % 1017,6 hPa 0,0 l/m 0 min 0 min 0 W/m 4,5 km/h (1 Bft) 93,62 %
14.07.2018 00:20 20,1 C 18,9 C 18,3 C 73 % 1017,7 hPa 0,0 l/m 0 min 0 min 0 W/m 4,5 km/h (1 Bft) 91,49 %
14.07.2018 00:22 20,1 C 18,9 C 18,3 C 73 % 1017,6 hPa 0,0 l/m 0 min 0 min 0 W/m 4,5 km/h (1 Bft) 95,74 %
14.07.2018 00:24 20,1 C 18,9 C 18,3 C 74 % 1017,6 hPa 0,0 l/m 0 min 0 min 0 W/m 4,5 km/h (1 Bft) 95,74 %
14.07.2018 00:26 20,1 C 18,9 C 18,3 C 74 % 1017,6 hPa 0,0 l/m 0 min 0 min 0 W/m 6,8 km/h (2 Bft) 95,74 %
14.07.2018 00:28 20,1 C 18,9 C 18,3 C 74 % 1017,6 hPa 0,0 l/m 0 min 0 min 0 W/m 4,5 km/h (1 Bft) 95,65 %
14.07.2018 00:30 20,1 C 18,9 C 18,3 C 74 % 1017,6 hPa 0,0 l/m 0 min 0 min 0 W/m 4,5 km/h (1 Bft) 95,74 %
14.07.2018 00:32 20,0 C 18,9 C 18,3 C 74 % 1017,5 hPa 0,0 l/m 0 min 0 min 0 W/m 4,5 km/h (1 Bft) 96,30 %
14.07.2018 00:34 20,0 C 18,9 C 18,3 C 74 % 1017,6 hPa 0,0 l/m 0 min 0 min 0 W/m 4,5 km/h (1 Bft) 97,87 %
14.07.2018 00:36 20,0 C 18,9 C 18,3 C 74 % 1017,6 hPa 0,0 l/m 0 min 0 min 0 W/m 4,5 km/h (1 Bft) 98,00 %
14.07.2018 00:38 19,9 C 18,9 C 18,3 C 75 % 1017,6 hPa 0,0 l/m 0 min 0 min 0 W/m 4,5 km/h (1 Bft) 95,65 %
14.07.2018 00:40 19,9 C 18,9 C 18,3 C 75 % 1017,6 hPa 0,0 l/m 0 min 0 min 0 W/m 0,0 km/h (0 Bft) 97,87 %
14.07.2018 00:42 19,9 C 18,9 C 18,3 C 75 % 1017,7 hPa 0,0 l/m 0 min 0 min 0 W/m 11,3 km/h (2 Bft) 97,87 %
14.07.2018 00:44 19,9 C 18,9 C 18,3 C 75 % 1017,6 hPa 0,0 l/m 0 min 0 min 0 W/m 13,5 km/h (3 Bft) 97,87 %
14.07.2018 00:46 19,9 C 18,9 C 18,3 C 75 % 1017,6 hPa 0,0 l/m 0 min 0 min 0 W/m 11,3 km/h (2 Bft) 97,87 %
14.07.2018 00:48 19,9 C 18,9 C 18,3 C 75 % 1017,6 hPa 0,0 l/m 0 min 0 min 0 W/m 11,3 km/h (2 Bft) 97,83 %
14.07.2018 00:50 19,8 C 18,9 C 18,3 C 75 % 1017,7 hPa 0,0 l/m 0 min 0 min 0 W/m 6,8 km/h (2 Bft) 97,87 %
14.07.2018 00:52 19,8 C 18,9 C 18,3 C 75 % 1017,7 hPa 0,0 l/m 0 min 0 min 0 W/m 6,8 km/h (2 Bft) 97,92 %
14.07.2018 00:54 19,8 C 18,9 C 18,3 C 75 % 1017,7 hPa 0,0 l/m 0 min 0 min 0 W/m 4,5 km/h (1 Bft) 94,44 %
14.07.2018 00:56 19,8 C 18,9 C 18,3 C 75 % 1017,7 hPa 0,0 l/m 0 min 0 min 0 W/m 2,3 km/h (1 Bft) 97,87 %
14.07.2018 00:58 19,8 C 18,3 C 17,8 C 75 % 1017,7 hPa 0,0 l/m 0 min 0 min 0 W/m 2,3 km/h (1 Bft) 97,87 %
14.07.2018 01:00 19,8 C 18,3 C 18,3 C 75 % 1017,7 hPa 0,0 l/m 0 min 0 min 0 W/m 2,3 km/h (1 Bft) 97,87 %
14.07.2018 01:02 19,7 C 18,3 C 17,8 C 76 % 1017,7 hPa 0,0 l/m 0 min 0 min 0 W/m 6,8 km/h (2 Bft) 97,87 %
14.07.2018 01:04 19,7 C 18,3 C 17,8 C 76 % 1017,6 hPa 0,0 l/m 0 min 0 min 0 W/m 4,5 km/h (1 Bft) 97,83 %
14.07.2018 01:06 19,7 C 18,3 C 17,8 C 76 % 1017,7 hPa 0,0 l/m 0 min 0 min 0 W/m 4,5 km/h (1 Bft) 97,87 %
14.07.2018 01:08 19,7 C 18,3 C 17,8 C 76 % 1017,7 hPa 0,0 l/m 0 min 0 min 0 W/m 4,5 km/h (1 Bft) 100,00 %
14.07.2018 01:10 19,7 C 18,3 C 17,8 C 76 % 1017,6 hPa 0,0 l/m 0 min 0 min 0 W/m 6,8 km/h (2 Bft) 97,87 %
14.07.2018 01:12 19,6 C 18,3 C 17,8 C 76 % 1017,7 hPa 0,0 l/m 0 min 0 min 0 W/m 6,8 km/h (2 Bft) 100,00 %
14.07.2018 01:14 19,6 C 18,3 C 17,8 C 76 % 1017,7 hPa 0,0 l/m 0 min 0 min 0 W/m 2,3 km/h (1 Bft) 100,00 %
14.07.2018 01:16 19,6 C 18,3 C 17,8 C 76 % 1017,7 hPa 0,0 l/m 0 min 0 min 0 W/m 6,8 km/h (2 Bft) 100,00 %
14.07.2018 01:18 19,6 C 18,3 C 17,8 C 77 % 1017,7 hPa 0,0 l/m 0 min 0 min 0 W/m 4,5 km/h (1 Bft) 97,87 %
14.07.2018 01:20 19,5 C 18,3 C 17,8 C 77 % 1017,7 hPa 0,0 l/m 0 min 0 min 0 W/m 2,3 km/h (1 Bft) 97,87 %
14.07.2018 01:22 19,5 C 18,3 C 17,8 C 77 % 1017,7 hPa 0,0 l/m 0 min 0 min 0 W/m 2,3 km/h (1 Bft) 100,00 %
14.07.2018 01:24 19,5 C 18,3 C 17,8 C 77 % 1017,6 hPa 0,0 l/m 0 min 0 min 0 W/m 2,3 km/h (1 Bft) 100,00 %
14.07.2018 01:26 19,4 C 18,3 C 17,8 C 77 % 1017,7 hPa 0,0 l/m 0 min 0 min 0 W/m 9,0 km/h (2 Bft) 97,87 %
14.07.2018 01:28 19,4 C 18,3 C 17,8 C 77 % 1017,6 hPa 0,0 l/m 0 min 0 min 0 W/m 4,5 km/h (1 Bft) 100,00 %
14.07.2018 01:30 19,4 C 18,3 C 17,8 C 77 % 1017,6 hPa 0,0 l/m 0 min 0 min 0 W/m 4,5 km/h (1 Bft) 100,00 %
14.07.2018 01:32 19,4 C 18,3 C 17,8 C 77 % 1017,6 hPa 0,0 l/m 0 min 0 min 0 W/m 2,3 km/h (1 Bft) 97,87 %
14.07.2018 01:34 19,4 C 17,8 C 17,8 C 77 % 1017,7 hPa 0,0 l/m 0 min 0 min 0 W/m 4,5 km/h (1 Bft) 100,00 %
14.07.2018 01:36 19,3 C 17,8 C 17,8 C 78 % 1017,6 hPa 0,0 l/m 0 min 0 min 0 W/m 2,3 km/h (1 Bft) 100,00 %
14.07.2018 01:38 19,3 C 17,8 C 17,8 C 78 % 1017,7 hPa 0,0 l/m 0 min 0 min 0 W/m 4,5 km/h (1 Bft) 100,00 %
14.07.2018 01:40 19,3 C 17,8 C 17,8 C 78 % 1017,6 hPa 0,0 l/m 0 min 0 min 0 W/m 4,5 km/h (1 Bft) 100,00 %
14.07.2018 01:42 19,2 C 17,8 C 17,8 C 78 % 1017,7 hPa 0,0 l/m 0 min 0 min 0 W/m 6,8 km/h (2 Bft) 97,87 %
14.07.2018 01:44 19,2 C 17,8 C 17,8 C 78 % 1017,6 hPa 0,0 l/m 0 min 0 min 0 W/m 4,5 km/h (1 Bft) 100,00 %
14.07.2018 01:46 19,2 C 17,8 C 17,8 C 78 % 1017,6 hPa 0,0 l/m 0 min 0 min 0 W/m 4,5 km/h (1 Bft) 100,00 %
14.07.2018 01:48 19,2 C 17,8 C 17,8 C 78 % 1017,5 hPa 0,0 l/m 0 min 0 min 0 W/m 11,3 km/h (2 Bft) 97,87 %
14.07.2018 01:50 19,2 C 17,8 C 17,8 C 78 % 1017,6 hPa 0,0 l/m 0 min 0 min 0 W/m 2,3 km/h (1 Bft) 97,83 %
14.07.2018 01:52 19,2 C 17,8 C 17,8 C 78 % 1017,5 hPa 0,0 l/m 0 min 0 min 0 W/m 4,5 km/h (1 Bft) 97,87 %
14.07.2018 01:54 19,1 C 17,8 C 17,2 C 78 % 1017,5 hPa 0,0 l/m 0 min 0 min 0 W/m 4,5 km/h (1 Bft) 95,74 %
14.07.2018 01:56 19,1 C 17,8 C 17,2 C 78 % 1017,5 hPa 0,0 l/m 0 min 0 min 0 W/m 2,3 km/h (1 Bft) 97,87 %
14.07.2018 01:58 19,1 C 17,8 C 17,2 C 78 % 1017,5 hPa 0,0 l/m 0 min 0 min 0 W/m 4,5 km/h (1 Bft) 97,87 %
14.07.2018 02:00 19,0 C 17,8 C 17,2 C 78 % 1017,5 hPa 0,0 l/m 0 min 0 min 0 W/m 4,5 km/h (1 Bft) 97,87 %
14.07.2018 02:02 19,0 C 17,8 C 17,2 C 79 % 1017,6 hPa 0,0 l/m 0 min 0 min 0 W/m 2,3 km/h (1 Bft) 98,08 %
14.07.2018 02:04 19,0 C 17,8 C 17,2 C 79 % 1017,5 hPa 0,0 l/m 0 min 0 min 0 W/m 4,5 km/h (1 Bft) 95,74 %
14.07.2018 02:06 18,9 C 17,8 C 17,2 C 79 % 1017,5 hPa 0,0 l/m 0 min 0 min 0 W/m 4,5 km/h (1 Bft) 97,87 %
14.07.2018 02:08 18,9 C 17,8 C 17,2 C 79 % 1017,5 hPa 0,0 l/m 0 min 0 min 0 W/m 4,5 km/h (1 Bft) 97,87 %
14.07.2018 02:10 18,9 C 17,8 C 17,2 C 79 % 1017,5 hPa 0,0 l/m 0 min 0 min 0 W/m 6,8 km/h (2 Bft) 95,74 %
14.07.2018 02:12 18,9 C 17,2 C 17,2 C 79 % 1017,5 hPa 0,0 l/m 0 min 0 min 0 W/m 0,0 km/h (0 Bft) 95,65 %
14.07.2018 02:14 18,9 C 17,2 C 17,2 C 79 % 1017,5 hPa 0,0 l/m 0 min 0 min 0 W/m 2,3 km/h (1 Bft) 97,87 %
14.07.2018 02:16 18,8 C 17,2 C 17,2 C 79 % 1017,5 hPa 0,0 l/m 0 min 0 min 0 W/m 2,3 km/h (1 Bft) 92,68 %
14.07.2018 02:18 18,8 C 17,2 C 17,2 C 80 % 1017,5 hPa 0,0 l/m 0 min 0 min 0 W/m 2,3 km/h (1 Bft) 98,11 %
14.07.2018 02:20 18,8 C 17,2 C 17,2 C 80 % 1017,5 hPa 0,0 l/m 0 min 0 min 0 W/m 2,3 km/h (1 Bft) 95,74 %
14.07.2018 02:22 18,8 C 17,2 C 17,2 C 79 % 1017,5 hPa 0,0 l/m 0 min 0 min 0 W/m 0,0 km/h (0 Bft) 95,74 %
14.07.2018 02:24 18,7 C 17,2 C 17,2 C 80 % 1017,5 hPa 0,0 l/m 0 min 0 min 0 W/m 0,0 km/h (0 Bft) 93,48 %
14.07.2018 02:26 18,7 C 17,2 C 16,7 C 80 % 1017,5 hPa 0,0 l/m 0 min 0 min 0 W/m 2,3 km/h (1 Bft) 93,62 %
14.07.2018 02:28 18,7 C 17,2 C 17,2 C 80 % 1017,5 hPa 0,0 l/m 0 min 0 min 0 W/m 2,3 km/h (1 Bft) 95,74 %
14.07.2018 02:30 18,7 C 17,2 C 17,2 C 80 % 1017,6 hPa 0,0 l/m 0 min 0 min 0 W/m 0,0 km/h (0 Bft) 95,74 %
14.07.2018 02:32 18,6 C 17,2 C 16,7 C 80 % 1017,5 hPa 0,0 l/m 0 min 0 min 0 W/m 2,3 km/h (1 Bft) 92,68 %
14.07.2018 02:34 18,6 C 17,2 C 17,2 C 80 % 1017,5 hPa 0,0 l/m 0 min 0 min 0 W/m 4,5 km/h (1 Bft) 95,74 %
14.07.2018 02:36 18,6 C 17,2 C 16,7 C 80 % 1017,5 hPa 0,0 l/m 0 min 0 min 0 W/m 4,5 km/h (1 Bft) 96,36 %
14.07.2018 02:38 18,5 C 17,2 C 16,7 C 80 % 1017,5 hPa 0,0 l/m 0 min 0 min 0 W/m 2,3 km/h (1 Bft) 95,74 %
14.07.2018 02:40 18,5 C 17,2 C 16,7 C 81 % 1017,5 hPa 0,0 l/m 0 min 0 min 0 W/m 0,0 km/h (0 Bft) 95,74 %
14.07.2018 02:42 18,4 C 16,7 C 16,7 C 81 % 1017,4 hPa 0,0 l/m 0 min 0 min 0 W/m 2,3 km/h (1 Bft) 97,87 %
14.07.2018 02:44 18,4 C 17,2 C 16,7 C 81 % 1017,4 hPa 0,0 l/m 0 min 0 min 0 W/m 4,5 km/h (1 Bft) 97,87 %
14.07.2018 02:46 18,4 C 17,2 C 16,7 C 81 % 1017,5 hPa 0,0 l/m 0 min 0 min 0 W/m 4,5 km/h (1 Bft) 97,83 %
14.07.2018 02:48 18,4 C 17,2 C 16,7 C 81 % 1017,5 hPa 0,0 l/m 0 min 0 min 0 W/m 4,5 km/h (1 Bft) 95,74 %
14.07.2018 02:50 18,3 C 17,2 C 16,7 C 81 % 1017,5 hPa 0,0 l/m 0 min 0 min 0 W/m 2,3 km/h (1 Bft) 95,74 %
14.07.2018 02:52 18,3 C 16,7 C 16,7 C 81 % 1017,4 hPa 0,0 l/m 0 min 0 min 0 W/m 2,3 km/h (1 Bft) 95,83 %
14.07.2018 02:54 18,3 C 16,7 C 16,7 C 81 % 1017,5 hPa 0,0 l/m 0 min 0 min 0 W/m 2,3 km/h (1 Bft) 97,87 %
14.07.2018 02:56 18,2 C 16,7 C 16,7 C 82 % 1017,5 hPa 0,0 l/m 0 min 0 min 0 W/m 2,3 km/h (1 Bft) 97,87 %
14.07.2018 02:58 18,2 C 16,7 C 16,7 C 82 % 1017,4 hPa 0,0 l/m 0 min 0 min 0 W/m 4,5 km/h (1 Bft) 95,65 %
14.07.2018 03:00 18,2 C 16,7 C 16,7 C 82 % 1017,5 hPa 0,0 l/m 0 min 0 min 0 W/m 6,8 km/h (2 Bft) 95,74 %
14.07.2018 03:02 18,2 C 16,7 C 16,7 C 82 % 1017,5 hPa 0,0 l/m 0 min 0 min 0 W/m 0,0 km/h (0 Bft) 97,30 %
14.07.2018 03:04 18,1 C 16,7 C 16,7 C 82 % 1017,6 hPa 0,0 l/m 0 min 0 min 0 W/m 0,0 km/h (0 Bft) 95,74 %
14.07.2018 03:06 18,1 C 16,7 C 16,7 C 82 % 1017,5 hPa 0,0 l/m 0 min 0 min 0 W/m 2,3 km/h (1 Bft) 98,11 %
14.07.2018 03:08 18,1 C 16,7 C 16,7 C 82 % 1017,6 hPa 0,0 l/m 0 min 0 min 0 W/m 2,3 km/h (1 Bft) 97,87 %
14.07.2018 03:10 18,1 C 16,7 C 16,7 C 82 % 1017,5 hPa 0,0 l/m 0 min 0 min 0 W/m 0,0 km/h (0 Bft) 97,83 %
14.07.2018 03:12 18,1 C 16,7 C 16,7 C 82 % 1017,5 hPa 0,0 l/m 0 min 0 min 0 W/m 2,3 km/h (1 Bft) 97,87 %
14.07.2018 03:14 18,0 C 16,7 C 16,7 C 82 % 1017,5 hPa 0,0 l/m 0 min 0 min 0 W/m 0,0 km/h (0 Bft) 97,87 %
14.07.2018 03:16 18,0 C 16,7 C 16,7 C 82 % 1017,5 hPa 0,0 l/m 0 min 0 min 0 W/m 2,3 km/h (1 Bft) 100,00 %
14.07.2018 03:18 17,9 C 16,7 C 16,7 C 82 % 1017,5 hPa 0,0 l/m 0 min 0 min 0 W/m 0,0 km/h (0 Bft) 100,00 %
14.07.2018 03:20 17,9 C 16,7 C 16,7 C 82 % 1017,6 hPa 0,0 l/m 0 min 0 min 0 W/m 4,5 km/h (1 Bft) 98,11 %
14.07.2018 03:22 17,9 C 16,7 C 16,7 C 83 % 1017,5 hPa 0,0 l/m 0 min 0 min 0 W/m 2,3 km/h (1 Bft) 100,00 %
14.07.2018 03:24 17,9 C 16,1 C 16,7 C 83 % 1017,5 hPa 0,0 l/m 0 min 0 min 0 W/m 0,0 km/h (0 Bft) 100,00 %
14.07.2018 03:26 17,8 C 16,1 C 16,1 C 83 % 1017,5 hPa 0,0 l/m 0 min 0 min 0 W/m 0,0 km/h (0 Bft) 100,00 %
14.07.2018 03:28 17,8 C 16,1 C 16,1 C 83 % 1017,6 hPa 0,0 l/m 0 min 0 min 0 W/m 4,5 km/h (1 Bft) 100,00 %
14.07.2018 03:30 17,8 C 16,1 C 16,7 C 83 % 1017,6 hPa 0,0 l/m 0 min 0 min 0 W/m 2,3 km/h (1 Bft) 97,87 %
14.07.2018 03:32 17,8 C 16,1 C 16,1 C 84 % 1017,6 hPa 0,0 l/m 0 min 0 min 0 W/m 4,5 km/h (1 Bft) 100,00 %
14.07.2018 03:34 17,7 C 16,1 C 16,7 C 84 % 1017,6 hPa 0,0 l/m 0 min 0 min 0 W/m 0,0 km/h (0 Bft) 100,00 %
14.07.2018 03:36 17,7 C 16,1 C 16,7 C 84 % 1017,6 hPa 0,0 l/m 0 min 0 min 0 W/m 0,0 km/h (0 Bft) 100,00 %
14.07.2018 03:38 17,6 C 16,1 C 16,1 C 84 % 1017,7 hPa 0,0 l/m 0 min 0 min 0 W/m 0,0 km/h (0 Bft) 100,00 %
14.07.2018 03:40 17,6 C 16,1 C 16,1 C 84 % 1017,6 hPa 0,0 l/m 0 min 0 min 0 W/m 4,5 km/h (1 Bft) 100,00 %
14.07.2018 03:42 17,6 C 16,1 C 16,1 C 84 % 1017,6 hPa 0,0 l/m 0 min 0 min 0 W/m 2,3 km/h (1 Bft) 100,00 %
14.07.2018 03:44 17,6 C 16,1 C 16,1 C 84 % 1017,6 hPa 0,0 l/m 0 min 0 min 0 W/m 0,0 km/h (0 Bft) 100,00 %
14.07.2018 03:46 17,5 C 16,1 C 16,1 C 84 % 1017,6 hPa 0,0 l/m 0 min 0 min 0 W/m 2,3 km/h (1 Bft) 100,00 %
14.07.2018 03:48 17,5 C 16,1 C 16,1 C 84 % 1017,6 hPa 0,0 l/m 0 min 0 min 0 W/m 4,5 km/h (1 Bft) 100,00 %
14.07.2018 03:50 17,4 C 16,1 C 16,1 C 84 % 1017,6 hPa 0,0 l/m 0 min 0 min 0 W/m 2,3 km/h (1 Bft) 95,74 %
14.07.2018 03:52 17,4 C 16,1 C 16,1 C 85 % 1017,6 hPa 0,0 l/m 0 min 0 min 0 W/m 2,3 km/h (1 Bft) 100,00 %
14.07.2018 03:54 17,4 C 16,1 C 16,1 C 85 % 1017,6 hPa 0,0 l/m 0 min 0 min 0 W/m 0,0 km/h (0 Bft) 97,87 %
14.07.2018 03:56 17,4 C 16,1 C 16,1 C 85 % 1017,6 hPa 0,0 l/m 0 min 0 min 0 W/m 2,3 km/h (1 Bft) 97,83 %
14.07.2018 03:58 17,3 C 16,1 C 16,1 C 85 % 1017,6 hPa 0,0 l/m 0 min 0 min 0 W/m 0,0 km/h (0 Bft) 97,87 %
14.07.2018 04:00 17,3 C 16,1 C 16,1 C 85 % 1017,6 hPa 0,0 l/m 0 min 0 min 0 W/m 0,0 km/h (0 Bft) 95,74 %
14.07.2018 04:05 17,3 C 16,1 C 16,1 C 85 % 1017,6 hPa 0,0 l/m 0 min 0 min 0 W/m 4,5 km/h (1 Bft) 98,11 %
14.07.2018 04:06 17,3 C 16,1 C 16,1 C 85 % 1017,7 hPa 0,0 l/m 0 min 0 min 0 W/m 6,8 km/h (2 Bft) 100,00 %
14.07.2018 04:08 17,2 C 16,1 C 16,1 C 85 % 1017,7 hPa 0,0 l/m 0 min 0 min 0 W/m 2,3 km/h (1 Bft) 97,83 %
14.07.2018 04:10 17,2 C 16,1 C 16,1 C 85 % 1017,7 hPa 0,0 l/m 0 min 0 min 0 W/m 2,3 km/h (1 Bft) 97,87 %
14.07.2018 04:12 17,2 C 16,1 C 16,1 C 85 % 1017,7 hPa 0,0 l/m 0 min 0 min 0 W/m 0,0 km/h (0 Bft) 97,87 %
14.07.2018 04:14 17,2 C 16,1 C 16,1 C 85 % 1017,7 hPa 0,0 l/m 0 min 0 min 0 W/m 4,5 km/h (1 Bft) 97,87 %
14.07.2018 04:16 17,1 C 16,1 C 16,1 C 85 % 1017,7 hPa 0,0 l/m 0 min 0 min 0 W/m 4,5 km/h (1 Bft) 97,87 %
14.07.2018 04:18 17,1 C 15,6 C 16,1 C 85 % 1017,6 hPa 0,0 l/m 0 min 0 min 0 W/m 4,5 km/h (1 Bft) 97,87 %
14.07.2018 04:20 17,1 C 15,6 C 16,1 C 86 % 1017,7 hPa 0,0 l/m 0 min 0 min 0 W/m 0,0 km/h (0 Bft) 97,83 %
14.07.2018 04:22 17,1 C 15,6 C 16,1 C 86 % 1017,6 hPa 0,0 l/m 0 min 0 min 0 W/m 2,3 km/h (1 Bft) 97,87 %
14.07.2018 04:24 17,0 C 15,6 C 16,1 C 86 % 1017,6 hPa 0,0 l/m 0 min 0 min 0 W/m 2,3 km/h (1 Bft) 97,87 %
14.07.2018 04:26 17,0 C 15,6 C 16,1 C 86 % 1017,6 hPa 0,0 l/m 0 min 0 min 0 W/m 2,3 km/h (1 Bft) 95,74 %
14.07.2018 04:28 17,0 C 15,6 C 16,1 C 86 % 1017,7 hPa 0,0 l/m 0 min 0 min 0 W/m 2,3 km/h (1 Bft) 97,87 %
14.07.2018 04:30 16,9 C 15,6 C 15,6 C 86 % 1017,7 hPa 0,0 l/m 0 min 0 min 0 W/m 0,0 km/h (0 Bft) 97,87 %
14.07.2018 04:32 16,9 C 15,6 C 15,6 C 86 % 1017,7 hPa 0,0 l/m 0 min 0 min 0 W/m 2,3 km/h (1 Bft) 95,83 %
14.07.2018 04:34 16,9 C 15,6 C 15,6 C 86 % 1017,7 hPa 0,0 l/m 0 min 0 min 0 W/m 2,3 km/h (1 Bft) 95,74 %
14.07.2018 04:36 16,9 C 15,6 C 15,6 C 86 % 1017,7 hPa 0,0 l/m 0 min 0 min 0 W/m 0,0 km/h (0 Bft) 97,22 %
14.07.2018 04:38 16,9 C 15,6 C 15,6 C 86 % 1017,7 hPa 0,0 l/m 0 min 0 min 0 W/m 2,3 km/h (1 Bft) 97,87 %
14.07.2018 04:40 16,8 C 15,6 C 15,6 C 86 % 1017,7 hPa 0,0 l/m 0 min 0 min 0 W/m 2,3 km/h (1 Bft) 97,87 %
14.07.2018 04:42 16,8 C 15,6 C 15,6 C 86 % 1017,8 hPa 0,0 l/m 0 min 0 min 0 W/m 4,5 km/h (1 Bft) 97,87 %
14.07.2018 04:44 16,8 C 15,6 C 15,6 C 86 % 1017,8 hPa 0,0 l/m 0 min 0 min 0 W/m 2,3 km/h (1 Bft) 97,87 %
14.07.2018 04:46 16,8 C 15,6 C 15,6 C 86 % 1017,7 hPa 0,0 l/m 0 min 0 min 0 W/m 0,0 km/h (0 Bft) 95,65 %
14.07.2018 04:48 16,7 C 15,6 C 15,6 C 87 % 1017,7 hPa 0,0 l/m 0 min 0 min 0 W/m 0,0 km/h (0 Bft) 95,74 %
14.07.2018 04:50 16,7 C 15,6 C 15,6 C 87 % 1017,7 hPa 0,0 l/m 0 min 0 min 0 W/m 4,5 km/h (1 Bft) 97,87 %
14.07.2018 04:52 16,7 C 15,6 C 15,6 C 87 % 1017,8 hPa 0,0 l/m 0 min 0 min 0 W/m 0,0 km/h (0 Bft) 91,49 %
14.07.2018 04:54 16,7 C 15,6 C 15,6 C 87 % 1017,8 hPa 0,0 l/m 0 min 0 min 0 W/m 4,5 km/h (1 Bft) 93,62 %
14.07.2018 04:56 16,7 C 15,6 C 15,6 C 87 % 1017,8 hPa 0,0 l/m 0 min 0 min 0 W/m 4,5 km/h (1 Bft) 95,65 %
14.07.2018 04:58 16,6 C 15,6 C 15,6 C 87 % 1017,8 hPa 0,0 l/m 0 min 0 min 0 W/m 0,0 km/h (0 Bft) 95,74 %
14.07.2018 05:00 16,6 C 15,6 C 15,6 C 87 % 1017,8 hPa 0,0 l/m 0 min 0 min 0 W/m 0,0 km/h (0 Bft) 93,62 %
14.07.2018 05:02 16,6 C 15,0 C 15,6 C 87 % 1017,8 hPa 0,0 l/m 0 min 0 min 0 W/m 0,0 km/h (0 Bft) 93,62 %
14.07.2018 05:04 16,6 C 15,0 C 15,6 C 87 % 1017,7 hPa 0,0 l/m 0 min 0 min 0 W/m 0,0 km/h (0 Bft) 93,62 %
14.07.2018 05:06 16,5 C 15,0 C 15,6 C 87 % 1017,7 hPa 0,0 l/m 0 min 0 min 0 W/m 0,0 km/h (0 Bft) 94,44 %
14.07.2018 05:08 16,5 C 15,0 C 15,6 C 87 % 1017,7 hPa 0,0 l/m 0 min 0 min 0 W/m 0,0 km/h (0 Bft) 95,74 %
14.07.2018 05:10 16,5 C 15,0 C 15,6 C 87 % 1017,7 hPa 0,0 l/m 0 min 0 min 0 W/m 0,0 km/h (0 Bft) 93,62 %
14.07.2018 05:12 16,4 C 15,0 C 15,0 C 87 % 1017,8 hPa 0,0 l/m 0 min 0 min 0 W/m 0,0 km/h (0 Bft) 95,74 %
14.07.2018 05:14 16,4 C 15,0 C 15,0 C 87 % 1017,7 hPa 0,0 l/m 0 min 0 min 0 W/m 4,5 km/h (1 Bft) 91,49 %
14.07.2018 05:16 16,4 C 15,0 C 15,0 C 88 % 1017,7 hPa 0,0 l/m 0 min 0 min 0 W/m 0,0 km/h (0 Bft) 95,74 %
14.07.2018 05:18 16,4 C 15,0 C 15,0 C 88 % 1017,6 hPa 0,0 l/m 0 min 0 min 0 W/m 0,0 km/h (0 Bft) 95,65 %
14.07.2018 05:20 16,3 C 15,0 C 15,0 C 88 % 1017,7 hPa 0,0 l/m 0 min 0 min 0 W/m 0,0 km/h (0 Bft) 97,87 %
14.07.2018 05:22 16,3 C 15,0 C 15,0 C 88 % 1017,6 hPa 0,0 l/m 0 min 0 min 0 W/m 0,0 km/h (0 Bft) 93,62 %
14.07.2018 05:24 16,3 C 15,0 C 15,0 C 88 % 1017,6 hPa 0,0 l/m 0 min 0 min 0 W/m 0,0 km/h (0 Bft) 93,62 %
14.07.2018 05:26 16,3 C 15,0 C 15,0 C 88 % 1017,6 hPa 0,0 l/m 0 min 0 min 0 W/m 2,3 km/h (1 Bft) 95,74 %
14.07.2018 05:28 16,3 C 15,0 C 15,0 C 88 % 1017,6 hPa 0,0 l/m 0 min 0 min 0 W/m 2,3 km/h (1 Bft) 95,74 %
14.07.2018 05:30 16,2 C 15,0 C 15,0 C 88 % 1017,5 hPa 0,0 l/m 0 min 0 min 0 W/m 0,0 km/h (0 Bft) 93,48 %
14.07.2018 05:32 16,2 C 15,0 C 15,0 C 88 % 1017,5 hPa 0,0 l/m 0 min 0 min 2 W/m 2,3 km/h (1 Bft) 94,00 %
14.07.2018 05:34 16,2 C 15,0 C 15,0 C 88 % 1017,5 hPa 0,0 l/m 0 min 0 min 5 W/m 2,3 km/h (1 Bft) 95,74 %
14.07.2018 05:35 16,2 C 15,0 C 15,0 C 88 % 1017,5 hPa 0,0 l/m 0 min 0 min 5 W/m 2,3 km/h (1 Bft) 98,25 %
14.07.2018 05:40 16,1 C 15,0 C 15,0 C 88 % 1017,6 hPa 0,0 l/m 0 min 0 min 5 W/m 2,3 km/h (1 Bft) 100,00 %
14.07.2018 05:42 16,1 C 15,0 C 15,0 C 88 % 1017,6 hPa 0,0 l/m 0 min 0 min 7 W/m 0,0 km/h (0 Bft) 100,00 %
14.07.2018 05:44 16,1 C 15,0 C 15,0 C 88 % 1017,7 hPa 0,0 l/m 0 min 0 min 7 W/m 0,0 km/h (0 Bft) 97,83 %
14.07.2018 05:46 16,1 C 15,0 C 15,0 C 88 % 1017,8 hPa 0,0 l/m 0 min 0 min 9 W/m 0,0 km/h (0 Bft) 95,74 %
14.07.2018 05:48 16,0 C 15,0 C 15,0 C 88 % 1017,8 hPa 0,0 l/m 0 min 0 min 9 W/m 0,0 km/h (0 Bft) 100,00 %
14.07.2018 05:50 16,0 C 15,0 C 15,0 C 88 % 1017,7 hPa 0,0 l/m 0 min 0 min 11 W/m 0,0 km/h (0 Bft) 97,87 %
14.07.2018 05:52 16,0 C 14,4 C 15,0 C 89 % 1017,6 hPa 0,0 l/m 0 min 0 min 11 W/m 0,0 km/h (0 Bft) 100,00 %
14.07.2018 05:54 15,9 C 14,4 C 15,0 C 89 % 1017,7 hPa 0,0 l/m 0 min 0 min 12 W/m 0,0 km/h (0 Bft) 100,00 %
14.07.2018 05:56 15,9 C 14,4 C 15,0 C 89 % 1017,6 hPa 0,0 l/m 0 min 0 min 12 W/m 0,0 km/h (0 Bft) 100,00 %
14.07.2018 05:58 15,9 C 14,4 C 15,0 C 89 % 1017,6 hPa 0,0 l/m 0 min 0 min 14 W/m 0,0 km/h (0 Bft) 97,87 %
14.07.2018 06:00 15,9 C 14,4 C 15,0 C 89 % 1017,5 hPa 0,0 l/m 0 min 0 min 15 W/m 0,0 km/h (0 Bft) 100,00 %
14.07.2018 06:02 15,9 C 14,4 C 15,0 C 89 % 1017,6 hPa 0,0 l/m 0 min 0 min 16 W/m 2,3 km/h (1 Bft) 100,00 %
14.07.2018 06:04 15,8 C 14,4 C 15,0 C 89 % 1017,6 hPa 0,0 l/m 0 min 0 min 17 W/m 2,3 km/h (1 Bft) 100,00 %
14.07.2018 06:08 15,8 C 14,4 C 15,0 C 89 % 1017,6 hPa 0,0 l/m 0 min 0 min 18 W/m 0,0 km/h (0 Bft) 100,00 %
14.07.2018 06:10 15,8 C 14,4 C 15,0 C 89 % 1017,6 hPa 0,0 l/m 0 min 0 min 19 W/m 2,3 km/h (1 Bft) 100,00 %
14.07.2018 06:12 15,8 C 14,4 C 15,0 C 89 % 1017,6 hPa 0,0 l/m 0 min 0 min 21 W/m 0,0 km/h (0 Bft) 97,87 %
14.07.2018 06:14 15,8 C 14,4 C 15,0 C 89 % 1017,6 hPa 0,0 l/m 0 min 0 min 23 W/m 2,3 km/h (1 Bft) 100,00 %
14.07.2018 06:16 15,8 C 14,4 C 15,0 C 90 % 1017,6 hPa 0,0 l/m 0 min 0 min 24 W/m 2,3 km/h (1 Bft) 100,00 %
14.07.2018 06:18 15,7 C 14,4 C 15,0 C 89 % 1017,6 hPa 0,0 l/m 0 min 0 min 26 W/m 2,3 km/h (1 Bft) 100,00 %
14.07.2018 06:20 15,7 C 15,0 C 15,0 C 89 % 1017,6 hPa 0,0 l/m 0 min 0 min 27 W/m 2,3 km/h (1 Bft) 100,00 %
14.07.2018 06:22 15,7 C 15,0 C 15,0 C 90 % 1017,6 hPa 0,0 l/m 0 min 0 min 28 W/m 0,0 km/h (0 Bft) 100,00 %
14.07.2018 06:24 15,7 C 14,4 C 15,0 C 90 % 1017,6 hPa 0,0 l/m 0 min 0 min 30 W/m 0,0 km/h (0 Bft) 100,00 %
14.07.2018 06:26 15,7 C 15,0 C 15,0 C 90 % 1017,6 hPa 0,0 l/m 0 min 0 min 32 W/m 2,3 km/h (1 Bft) 100,00 %
14.07.2018 06:28 15,7 C 14,4 C 15,0 C 90 % 1017,6 hPa 0,0 l/m 0 min 0 min 33 W/m 2,3 km/h (1 Bft) 100,00 %
14.07.2018 06:30 15,7 C 14,4 C 15,0 C 90 % 1017,6 hPa 0,0 l/m 0 min 0 min 33 W/m 0,0 km/h (0 Bft) 100,00 %
14.07.2018 06:32 15,6 C 14,4 C 15,0 C 90 % 1017,6 hPa 0,0 l/m 0 min 0 min 35 W/m 0,0 km/h (0 Bft) 100,00 %
14.07.2018 06:34 15,6 C 14,4 C 15,0 C 90 % 1017,6 hPa 0,0 l/m 0 min 0 min 35 W/m 0,0 km/h (0 Bft) 100,00 %
14.07.2018 06:36 15,6 C 14,4 C 15,0 C 90 % 1017,7 hPa 0,0 l/m 0 min 0 min 35 W/m 0,0 km/h (0 Bft) 100,00 %
14.07.2018 06:38 15,6 C 14,4 C 15,0 C 90 % 1017,6 hPa 0,0 l/m 0 min 0 min 35 W/m 0,0 km/h (0 Bft) 100,00 %
14.07.2018 06:40 15,6 C 15,0 C 15,0 C 90 % 1017,6 hPa 0,0 l/m 0 min 0 min 35 W/m 0,0 km/h (0 Bft) 97,87 %
14.07.2018 06:42 15,6 C 15,0 C 15,0 C 90 % 1017,6 hPa 0,0 l/m 0 min 0 min 36 W/m 6,8 km/h (2 Bft) 100,00 %
14.07.2018 06:44 15,6 C 15,0 C 15,0 C 90 % 1017,7 hPa 0,0 l/m 0 min 0 min 37 W/m 0,0 km/h (0 Bft) 100,00 %
14.07.2018 06:46 15,6 C 15,0 C 15,0 C 90 % 1017,6 hPa 0,0 l/m 0 min 0 min 39 W/m 0,0 km/h (0 Bft) 100,00 %
14.07.2018 06:48 15,6 C 15,0 C 15,0 C 90 % 1017,6 hPa 0,0 l/m 0 min 0 min 40 W/m 0,0 km/h (0 Bft) 100,00 %
14.07.2018 06:50 15,5 C 15,0 C 15,0 C 90 % 1017,6 hPa 0,0 l/m 0 min 0 min 41 W/m 4,5 km/h (1 Bft) 100,00 %
14.07.2018 06:52 15,5 C 15,0 C 15,0 C 90 % 1017,6 hPa 0,0 l/m 0 min 0 min 42 W/m 4,5 km/h (1 Bft) 100,00 %
14.07.2018 06:54 15,5 C 15,0 C 15,0 C 90 % 1017,7 hPa 0,0 l/m 0 min 0 min 44 W/m 0,0 km/h (0 Bft) 100,00 %
14.07.2018 06:56 15,6 C 15,6 C 15,0 C 90 % 1017,7 hPa 0,0 l/m 0 min 0 min 44 W/m 2,3 km/h (1 Bft) 100,00 %
14.07.2018 06:58 15,6 C 15,6 C 15,0 C 91 % 1017,7 hPa 0,0 l/m 0 min 0 min 45 W/m 2,3 km/h (1 Bft) 100,00 %
14.07.2018 07:00 15,6 C 15,6 C 15,0 C 91 % 1017,8 hPa 0,0 l/m 0 min 0 min 46 W/m 2,3 km/h (1 Bft) 100,00 %
14.07.2018 07:02 15,6 C 15,6 C 15,0 C 91 % 1017,8 hPa 0,0 l/m 0 min 0 min 47 W/m 2,3 km/h (1 Bft) 100,00 %
14.07.2018 07:04 15,6 C 15,6 C 15,0 C 91 % 1017,8 hPa 0,0 l/m 0 min 0 min 48 W/m 2,3 km/h (1 Bft) 97,83 %
14.07.2018 07:06 15,6 C 15,6 C 15,0 C 91 % 1017,8 hPa 0,0 l/m 0 min 0 min 50 W/m 4,5 km/h (1 Bft) 100,00 %
14.07.2018 07:08 15,6 C 15,6 C 15,0 C 91 % 1017,8 hPa 0,0 l/m 0 min 0 min 51 W/m 2,3 km/h (1 Bft) 100,00 %
14.07.2018 07:10 15,6 C 15,6 C 15,0 C 91 % 1017,8 hPa 0,0 l/m 0 min 0 min 52 W/m 4,5 km/h (1 Bft) 100,00 %
14.07.2018 07:12 15,6 C 15,6 C 15,0 C 91 % 1017,7 hPa 0,0 l/m 0 min 0 min 53 W/m 2,3 km/h (1 Bft) 100,00 %
14.07.2018 07:14 15,6 C 15,6 C 15,0 C 91 % 1017,7 hPa 0,0 l/m 0 min 0 min 55 W/m 2,3 km/h (1 Bft) 100,00 %
14.07.2018 07:16 15,6 C 15,6 C 15,0 C 91 % 1017,7 hPa 0,0 l/m 0 min 0 min 57 W/m 0,0 km/h (0 Bft) 100,00 %
14.07.2018 07:18 15,7 C 15,6 C 15,0 C 91 % 1017,7 hPa 0,0 l/m 0 min 0 min 59 W/m 6,8 km/h (2 Bft) 100,00 %
14.07.2018 07:20 15,7 C 15,6 C 15,0 C 91 % 1017,7 hPa 0,0 l/m 0 min 0 min 61 W/m 0,0 km/h (0 Bft) 97,87 %
14.07.2018 07:22 15,7 C 15,6 C 15,6 C 91 % 1017,7 hPa 0,0 l/m 0 min 0 min 62 W/m 0,0 km/h (0 Bft) 97,87 %
14.07.2018 07:24 15,7 C 16,1 C 15,6 C 91 % 1017,7 hPa 0,0 l/m 0 min 0 min 63 W/m 4,5 km/h (1 Bft) 98,11 %
14.07.2018 07:26 15,7 C 16,1 C 15,6 C 91 % 1017,7 hPa 0,0 l/m 0 min 0 min 63 W/m 2,3 km/h (1 Bft) 100,00 %
14.07.2018 07:28 15,7 C 16,1 C 15,6 C 91 % 1017,7 hPa 0,0 l/m 0 min 0 min 65 W/m 2,3 km/h (1 Bft) 97,87 %
14.07.2018 07:30 15,7 C 16,1 C 15,6 C 91 % 1017,7 hPa 0,0 l/m 0 min 0 min 65 W/m 2,3 km/h (1 Bft) 97,87 %
14.07.2018 07:32 15,7 C 16,1 C 15,6 C 91 % 1017,7 hPa 0,0 l/m 0 min 0 min 65 W/m 2,3 km/h (1 Bft) 100,00 %
14.07.2018 07:34 15,7 C 16,1 C 15,6 C 92 % 1017,7 hPa 0,0 l/m 0 min 0 min 67 W/m 2,3 km/h (1 Bft) 100,00 %
14.07.2018 07:36 15,8 C 16,1 C 15,6 C 91 % 1017,8 hPa 0,0 l/m 0 min 0 min 69 W/m 0,0 km/h (0 Bft) 100,00 %
14.07.2018 07:38 15,8 C 16,1 C 15,6 C 91 % 1017,8 hPa 0,0 l/m 0 min 0 min 70 W/m 2,3 km/h (1 Bft) 97,87 %
14.07.2018 07:40 15,8 C 16,1 C 15,6 C 91 % 1017,8 hPa 0,0 l/m 0 min 0 min 72 W/m 0,0 km/h (0 Bft) 97,87 %
14.07.2018 07:42 15,8 C 16,1 C 15,6 C 92 % 1017,8 hPa 0,0 l/m 0 min 0 min 74 W/m 4,5 km/h (1 Bft) 100,00 %
14.07.2018 07:44 15,8 C 16,7 C 15,6 C 92 % 1017,8 hPa 0,0 l/m 0 min 0 min 76 W/m 0,0 km/h (0 Bft) 97,87 %
14.07.2018 07:46 15,8 C 16,7 C 15,6 C 92 % 1017,8 hPa 0,0 l/m 0 min 0 min 78 W/m 0,0 km/h (0 Bft) 97,87 %
14.07.2018 07:48 15,9 C 16,7 C 15,6 C 92 % 1017,7 hPa 0,0 l/m 0 min 0 min 80 W/m 2,3 km/h (1 Bft) 97,83 %
14.07.2018 07:50 15,9 C 16,7 C 15,6 C 92 % 1017,9 hPa 0,0 l/m 0 min 0 min 84 W/m 0,0 km/h (0 Bft) 97,87 %
14.07.2018 07:52 15,9 C 16,7 C 15,6 C 92 % 1017,9 hPa 0,0 l/m 0 min 0 min 86 W/m 4,5 km/h (1 Bft) 97,92 %
14.07.2018 07:54 15,9 C 16,7 C 16,1 C 92 % 1018,0 hPa 0,0 l/m 0 min 0 min 90 W/m 0,0 km/h (0 Bft) 95,74 %
14.07.2018 07:56 15,9 C 16,7 C 16,1 C 92 % 1018,0 hPa 0,0 l/m 0 min 0 min 92 W/m 4,5 km/h (1 Bft) 93,62 %
14.07.2018 07:58 16,0 C 17,2 C 16,1 C 92 % 1018,0 hPa 0,0 l/m 0 min 0 min 93 W/m 2,3 km/h (1 Bft) 95,74 %
14.07.2018 08:00 16,1 C 17,2 C 16,1 C 92 % 1018,1 hPa 0,0 l/m 0 min 0 min 91 W/m 0,0 km/h (0 Bft) 95,65 %
14.07.2018 08:02 16,1 C 17,2 C 16,1 C 92 % 1018,0 hPa 0,0 l/m 0 min 0 min 91 W/m 4,5 km/h (1 Bft) 95,74 %
14.07.2018 08:04 16,1 C 17,2 C 16,1 C 92 % 1018,1 hPa 0,0 l/m 0 min 0 min 91 W/m 2,3 km/h (1 Bft) 93,62 %
14.07.2018 08:06 16,2 C 17,2 C 16,1 C 92 % 1018,1 hPa 0,0 l/m 0 min 0 min 92 W/m 2,3 km/h (1 Bft) 91,49 %
14.07.2018 08:08 16,2 C 17,2 C 16,1 C 92 % 1018,0 hPa 0,0 l/m 0 min 0 min 93 W/m 2,3 km/h (1 Bft) 93,62 %
14.07.2018 08:10 16,2 C 17,2 C 16,1 C 92 % 1018,1 hPa 0,0 l/m 0 min 0 min 93 W/m 6,8 km/h (2 Bft) 93,62 %
14.07.2018 08:12 16,3 C 17,2 C 16,1 C 92 % 1018,0 hPa 0,0 l/m 0 min 0 min 95 W/m 0,0 km/h (0 Bft) 93,48 %
14.07.2018 08:14 16,3 C 17,8 C 16,1 C 92 % 1018,0 hPa 0,0 l/m 0 min 0 min 97 W/m 2,3 km/h (1 Bft) 93,62 %
14.07.2018 08:16 16,3 C 17,8 C 16,1 C 92 % 1018,0 hPa 0,0 l/m 0 min 0 min 98 W/m 0,0 km/h (0 Bft) 93,62 %
14.07.2018 08:18 16,4 C 17,8 C 16,1 C 92 % 1018,0 hPa 0,0 l/m 0 min 0 min 101 W/m 2,3 km/h (1 Bft) 93,62 %
14.07.2018 08:20 16,4 C 17,8 C 16,7 C 92 % 1018,1 hPa 0,0 l/m 0 min 0 min 187 W/m 6,8 km/h (2 Bft) 93,62 %
14.07.2018 08:22 16,5 C 17,8 C 16,7 C 92 % 1018,2 hPa 0,0 l/m 2 min 0 min 253 W/m 6,8 km/h (2 Bft) 93,62 %
14.07.2018 08:24 16,5 C 17,8 C 16,7 C 92 % 1018,2 hPa 0,0 l/m 2 min 0 min 258 W/m 4,5 km/h (1 Bft) 97,37 %
14.07.2018 08:26 16,6 C 17,8 C 16,7 C 92 % 1018,2 hPa 0,0 l/m 2 min 0 min 262 W/m 2,3 km/h (1 Bft) 95,65 %
14.07.2018 08:28 16,7 C 18,3 C 16,7 C 92 % 1018,3 hPa 0,0 l/m 2 min 0 min 271 W/m 4,5 km/h (1 Bft) 93,62 %
14.07.2018 08:30 16,7 C 18,3 C 16,7 C 92 % 1018,3 hPa 0,0 l/m 2 min 0 min 219 W/m 4,5 km/h (1 Bft) 95,74 %
14.07.2018 08:32 16,7 C 18,3 C 16,7 C 92 % 1018,3 hPa 0,0 l/m 2 min 0 min 209 W/m 9,0 km/h (2 Bft) 95,74 %
14.07.2018 08:34 16,8 C 18,3 C 16,7 C 92 % 1018,4 hPa 0,0 l/m 2 min 0 min 231 W/m 9,0 km/h (2 Bft) 95,74 %
14.07.2018 08:36 16,9 C 18,3 C 16,7 C 92 % 1018,4 hPa 0,0 l/m 2 min 0 min 286 W/m 9,0 km/h (2 Bft) 95,83 %
14.07.2018 08:38 16,9 C 18,9 C 16,7 C 91 % 1018,4 hPa 0,0 l/m 2 min 0 min 305 W/m 9,0 km/h (2 Bft) 95,65 %
14.07.2018 08:40 17,0 C 18,9 C 16,7 C 91 % 1018,4 hPa 0,0 l/m 2 min 0 min 306 W/m 4,5 km/h (1 Bft) 95,74 %
14.07.2018 08:42 17,1 C 18,9 C 17,2 C 91 % 1018,4 hPa 0,0 l/m 2 min 0 min 310 W/m 6,8 km/h (2 Bft) 97,87 %
14.07.2018 08:44 17,1 C 18,9 C 17,2 C 91 % 1018,4 hPa 0,0 l/m 2 min 0 min 314 W/m 6,8 km/h (2 Bft) 97,87 %
14.07.2018 08:46 17,2 C 18,9 C 17,2 C 91 % 1018,4 hPa 0,0 l/m 2 min 0 min 317 W/m 6,8 km/h (2 Bft) 97,87 %
14.07.2018 08:48 17,2 C 18,9 C 17,2 C 91 % 1018,4 hPa 0,0 l/m 2 min 0 min 323 W/m 6,8 km/h (2 Bft) 93,48 %
14.07.2018 08:50 17,3 C 18,9 C 17,2 C 90 % 1018,4 hPa 0,0 l/m 2 min 0 min 331 W/m 4,5 km/h (1 Bft) 97,87 %
14.07.2018 08:52 17,4 C 19,4 C 17,2 C 90 % 1018,3 hPa 0,0 l/m 2 min 0 min 338 W/m 4,5 km/h (1 Bft) 95,74 %
14.07.2018 08:54 17,4 C 19,4 C 17,2 C 90 % 1018,3 hPa 0,0 l/m 2 min 0 min 346 W/m 6,8 km/h (2 Bft) 97,87 %
14.07.2018 08:56 17,5 C 19,4 C 17,2 C 90 % 1018,4 hPa 0,0 l/m 2 min 0 min 349 W/m 6,8 km/h (2 Bft) 97,87 %
14.07.2018 08:58 17,6 C 19,4 C 17,2 C 90 % 1018,4 hPa 0,0 l/m 2 min 0 min 349 W/m 4,5 km/h (1 Bft) 97,87 %
14.07.2018 09:00 17,7 C 19,4 C 17,2 C 89 % 1018,4 hPa 0,0 l/m 2 min 0 min 356 W/m 9,0 km/h (2 Bft) 97,83 %
14.07.2018 09:02 17,7 C 19,4 C 17,8 C 89 % 1018,4 hPa 0,0 l/m 2 min 0 min 367 W/m 6,8 km/h (2 Bft) 97,87 %
14.07.2018 09:04 17,8 C 19,4 C 17,8 C 89 % 1018,4 hPa 0,0 l/m 2 min 0 min 374 W/m 2,3 km/h (1 Bft) 100,00 %
14.07.2018 09:06 17,9 C 19,4 C 17,8 C 89 % 1018,4 hPa 0,0 l/m 2 min 0 min 376 W/m 9,0 km/h (2 Bft) 97,87 %
14.07.2018 09:08 17,9 C 19,4 C 17,8 C 88 % 1018,4 hPa 0,0 l/m 2 min 0 min 379 W/m 13,5 km/h (3 Bft) 100,00 %
14.07.2018 09:10 18,1 C 20,0 C 17,8 C 88 % 1018,4 hPa 0,0 l/m 2 min 0 min 380 W/m 6,8 km/h (2 Bft) 100,00 %
14.07.2018 09:12 18,2 C 20,0 C 17,8 C 88 % 1018,4 hPa 0,0 l/m 2 min 0 min 382 W/m 11,3 km/h (2 Bft) 100,00 %
14.07.2018 09:14 18,2 C 20,0 C 17,8 C 88 % 1018,4 hPa 0,0 l/m 2 min 0 min 391 W/m 13,5 km/h (3 Bft) 100,00 %
14.07.2018 09:16 18,3 C 20,0 C 17,8 C 87 % 1018,5 hPa 0,0 l/m 2 min 0 min 395 W/m 6,8 km/h (2 Bft) 97,87 %
14.07.2018 09:18 18,4 C 20,0 C 17,8 C 87 % 1018,4 hPa 0,0 l/m 2 min 0 min 402 W/m 6,8 km/h (2 Bft) 100,00 %
14.07.2018 09:20 18,5 C 20,0 C 17,8 C 87 % 1018,4 hPa 0,0 l/m 2 min 0 min 408 W/m 6,8 km/h (2 Bft) 100,00 %
14.07.2018 09:22 18,6 C 20,0 C 17,8 C 87 % 1018,4 hPa 0,0 l/m 2 min 0 min 415 W/m 11,3 km/h (2 Bft) 100,00 %
14.07.2018 09:24 18,6 C 20,0 C 18,3 C 86 % 1018,4 hPa 0,0 l/m 2 min 0 min 418 W/m 9,0 km/h (2 Bft) 100,00 %
14.07.2018 09:26 18,7 C 20,6 C 17,8 C 86 % 1018,4 hPa 0,0 l/m 2 min 0 min 421 W/m 13,5 km/h (3 Bft) 97,87 %
14.07.2018 09:28 18,7 C 20,0 C 17,8 C 86 % 1018,6 hPa 0,0 l/m 2 min 0 min 426 W/m 15,8 km/h (3 Bft) 100,00 %
14.07.2018 09:30 18,8 C 20,0 C 17,8 C 86 % 1018,6 hPa 0,0 l/m 2 min 0 min 432 W/m 11,3 km/h (2 Bft) 100,00 %
14.07.2018 09:32 18,9 C 20,6 C 18,3 C 85 % 1018,5 hPa 0,0 l/m 2 min 0 min 438 W/m 13,5 km/h (3 Bft) 100,00 %
14.07.2018 09:34 18,9 C 20,6 C 18,3 C 85 % 1018,5 hPa 0,0 l/m 2 min 0 min 442 W/m 9,0 km/h (2 Bft) 100,00 %
14.07.2018 09:38 19,1 C 20,6 C 18,3 C 84 % 1018,5 hPa 0,0 l/m 4 min 0 min 448 W/m 11,3 km/h (2 Bft) 97,87 %
14.07.2018 09:40 19,2 C 20,6 C 18,3 C 84 % 1018,4 hPa 0,0 l/m 2 min 0 min 459 W/m 11,3 km/h (2 Bft) 100,00 %
14.07.2018 09:42 19,2 C 20,6 C 18,3 C 84 % 1018,4 hPa 0,0 l/m 2 min 0 min 465 W/m 11,3 km/h (2 Bft) 100,00 %
14.07.2018 09:44 19,3 C 20,6 C 18,3 C 83 % 1018,4 hPa 0,0 l/m 2 min 0 min 472 W/m 9,0 km/h (2 Bft) 100,00 %
14.07.2018 09:46 19,3 C 21,1 C 18,9 C 83 % 1018,5 hPa 0,0 l/m 2 min 0 min 481 W/m 6,8 km/h (2 Bft) 100,00 %
14.07.2018 09:48 19,4 C 21,1 C 18,9 C 83 % 1018,4 hPa 0,0 l/m 2 min 0 min 485 W/m 9,0 km/h (2 Bft) 100,00 %
14.07.2018 09:50 19,4 C 21,1 C 18,9 C 83 % 1018,5 hPa 0,0 l/m 2 min 0 min 489 W/m 13,5 km/h (3 Bft) 100,00 %
14.07.2018 09:52 19,5 C 20,6 C 18,9 C 83 % 1018,5 hPa 0,0 l/m 2 min 0 min 483 W/m 11,3 km/h (2 Bft) 100,00 %
14.07.2018 09:54 19,6 C 20,6 C 18,9 C 83 % 1018,5 hPa 0,0 l/m 2 min 0 min 490 W/m 9,0 km/h (2 Bft) 100,00 %
14.07.2018 09:56 19,7 C 21,1 C 18,9 C 83 % 1018,5 hPa 0,0 l/m 2 min 0 min 495 W/m 6,8 km/h (2 Bft) 100,00 %
14.07.2018 09:58 19,7 C 21,1 C 18,9 C 82 % 1018,5 hPa 0,0 l/m 2 min 0 min 502 W/m 6,8 km/h (2 Bft) 100,00 %
14.07.2018 10:00 19,8 C 21,7 C 18,9 C 82 % 1018,5 hPa 0,0 l/m 2 min 0 min 503 W/m 6,8 km/h (2 Bft) 100,00 %
14.07.2018 10:02 19,8 C 21,7 C 18,9 C 82 % 1018,5 hPa 0,0 l/m 2 min 0 min 509 W/m 9,0 km/h (2 Bft) 100,00 %
14.07.2018 10:04 19,9 C 22,2 C 18,9 C 81 % 1018,4 hPa 0,0 l/m 2 min 0 min 518 W/m 13,5 km/h (3 Bft) 100,00 %
14.07.2018 10:06 19,9 C 22,8 C 18,9 C 81 % 1018,6 hPa 0,0 l/m 2 min 0 min 517 W/m 13,5 km/h (3 Bft) 100,00 %
14.07.2018 10:08 20,0 C 22,8 C 18,9 C 81 % 1018,5 hPa 0,0 l/m 2 min 0 min 514 W/m 9,0 km/h (2 Bft) 100,00 %
14.07.2018 10:10 20,1 C 22,2 C 18,9 C 80 % 1018,5 hPa 0,0 l/m 2 min 0 min 520 W/m 6,8 km/h (2 Bft) 100,00 %
14.07.2018 10:12 20,1 C 22,2 C 18,9 C 80 % 1018,5 hPa 0,0 l/m 2 min 0 min 527 W/m 11,3 km/h (2 Bft) 97,87 %
14.07.2018 10:14 20,2 C 22,2 C 18,9 C 80 % 1018,5 hPa 0,0 l/m 2 min 0 min 533 W/m 4,5 km/h (1 Bft) 100,00 %
14.07.2018 10:16 20,2 C 22,2 C 19,4 C 80 % 1018,5 hPa 0,0 l/m 2 min 0 min 541 W/m 11,3 km/h (2 Bft) 100,00 %
14.07.2018 10:18 20,3 C 22,2 C 19,4 C 79 % 1018,5 hPa 0,0 l/m 2 min 0 min 551 W/m 9,0 km/h (2 Bft) 100,00 %
14.07.2018 10:20 20,3 C 22,8 C 19,4 C 79 % 1018,5 hPa 0,0 l/m 2 min 0 min 557 W/m 13,5 km/h (3 Bft) 95,74 %
14.07.2018 10:22 20,3 C 22,8 C 19,4 C 79 % 1018,5 hPa 0,0 l/m 2 min 0 min 557 W/m 6,8 km/h (2 Bft) 97,83 %
14.07.2018 10:24 20,4 C 22,2 C 19,4 C 79 % 1018,4 hPa 0,0 l/m 2 min 0 min 564 W/m 11,3 km/h (2 Bft) 97,96 %
14.07.2018 10:26 20,4 C 22,2 C 19,4 C 78 % 1018,4 hPa 0,0 l/m 2 min 0 min 570 W/m 13,5 km/h (3 Bft) 97,87 %
14.07.2018 10:28 20,5 C 22,2 C 19,4 C 79 % 1018,5 hPa 0,0 l/m 2 min 0 min 570 W/m 9,0 km/h (2 Bft) 93,62 %
14.07.2018 10:30 20,6 C 22,8 C 19,4 C 78 % 1018,5 hPa 0,0 l/m 2 min 0 min 573 W/m 6,8 km/h (2 Bft) 97,87 %
14.07.2018 10:32 20,6 C 22,8 C 19,4 C 78 % 1018,4 hPa 0,0 l/m 2 min 0 min 574 W/m 4,5 km/h (1 Bft) 95,74 %
14.07.2018 10:34 20,7 C 22,8 C 20,0 C 78 % 1018,4 hPa 0,0 l/m 2 min 0 min 583 W/m 4,5 km/h (1 Bft) 95,74 %
14.07.2018 10:36 20,8 C 22,8 C 20,0 C 78 % 1018,4 hPa 0,0 l/m 2 min 0 min 592 W/m 11,3 km/h (2 Bft) 95,65 %
14.07.2018 10:38 20,8 C 22,2 C 20,0 C 77 % 1018,4 hPa 0,0 l/m 2 min 0 min 600 W/m 11,3 km/h (2 Bft) 95,74 %
14.07.2018 10:40 20,9 C 22,8 C 20,0 C 77 % 1018,4 hPa 0,0 l/m 2 min 0 min 601 W/m 11,3 km/h (2 Bft) 97,87 %
14.07.2018 10:42 20,9 C 23,3 C 20,0 C 77 % 1018,4 hPa 0,0 l/m 2 min 0 min 604 W/m 4,5 km/h (1 Bft) 93,62 %
14.07.2018 10:44 21,0 C 23,9 C 20,0 C 77 % 1018,4 hPa 0,0 l/m 2 min 0 min 610 W/m 11,3 km/h (2 Bft) 93,62 %
14.07.2018 10:46 21,1 C 23,9 C 20,0 C 77 % 1018,4 hPa 0,0 l/m 2 min 0 min 611 W/m 9,0 km/h (2 Bft) 95,65 %
14.07.2018 10:48 21,2 C 23,9 C 20,0 C 77 % 1018,4 hPa 0,0 l/m 2 min 0 min 616 W/m 4,5 km/h (1 Bft) 95,74 %
14.07.2018 10:50 21,3 C 23,9 C 20,6 C 77 % 1018,4 hPa 0,0 l/m 2 min 0 min 626 W/m 6,8 km/h (2 Bft) 95,74 %
14.07.2018 10:52 21,4 C 24,4 C 20,6 C 77 % 1018,4 hPa 0,0 l/m 2 min 0 min 626 W/m 13,5 km/h (3 Bft) 95,74 %
14.07.2018 10:54 21,6 C 25,0 C 20,6 C 76 % 1018,4 hPa 0,0 l/m 2 min 0 min 633 W/m 11,3 km/h (2 Bft) 95,74 %
14.07.2018 10:56 21,7 C 24,4 C 20,6 C 75 % 1018,4 hPa 0,0 l/m 2 min 0 min 639 W/m 15,8 km/h (3 Bft) 95,74 %
14.07.2018 10:58 21,7 C 26,1 C 20,6 C 75 % 1018,3 hPa 0,0 l/m 2 min 0 min 638 W/m 11,3 km/h (2 Bft) 95,65 %
14.07.2018 11:00 21,8 C 27,8 C 20,6 C 75 % 1018,3 hPa 0,0 l/m 2 min 0 min 639 W/m 9,0 km/h (2 Bft) 93,62 %
14.07.2018 11:02 21,9 C 28,3 C 20,6 C 74 % 1018,3 hPa 0,0 l/m 2 min 0 min 651 W/m 4,5 km/h (1 Bft) 93,62 %
14.07.2018 11:04 22,1 C 30,0 C 20,6 C 74 % 1018,3 hPa 0,0 l/m 2 min 0 min 657 W/m 4,5 km/h (1 Bft) 95,74 %
14.07.2018 11:06 22,1 C 29,4 C 20,6 C 74 % 1018,3 hPa 0,0 l/m 2 min 0 min 657 W/m 9,0 km/h (2 Bft) 95,74 %
14.07.2018 11:08 22,2 C 28,9 C 20,6 C 74 % 1018,3 hPa 0,0 l/m 2 min 0 min 645 W/m 9,0 km/h (2 Bft) 95,74 %
14.07.2018 11:10 22,3 C 30,6 C 20,6 C 74 % 1018,4 hPa 0,0 l/m 2 min 0 min 659 W/m 6,8 km/h (2 Bft) 97,83 %
14.07.2018 11:12 22,4 C 29,4 C 21,1 C 73 % 1018,4 hPa 0,0 l/m 2 min 0 min 660 W/m 11,3 km/h (2 Bft) 91,49 %
14.07.2018 11:14 22,6 C 29,4 C 21,1 C 73 % 1018,4 hPa 0,0 l/m 2 min 0 min 660 W/m 6,8 km/h (2 Bft) 95,74 %
14.07.2018 11:16 22,7 C 28,9 C 21,1 C 73 % 1018,4 hPa 0,0 l/m 2 min 0 min 672 W/m 9,0 km/h (2 Bft) 97,87 %
14.07.2018 11:18 22,8 C 30,6 C 21,1 C 73 % 1018,4 hPa 0,0 l/m 2 min 0 min 689 W/m 9,0 km/h (2 Bft) 95,74 %
14.07.2018 11:20 22,9 C 32,2 C 21,1 C 74 % 1018,3 hPa 0,0 l/m 2 min 0 min 699 W/m 4,5 km/h (1 Bft) 91,49 %
14.07.2018 11:22 23,1 C 31,7 C 21,1 C 72 % 1018,3 hPa 0,0 l/m 2 min 0 min 697 W/m 9,0 km/h (2 Bft) 93,48 %
14.07.2018 11:24 23,2 C 32,2 C 21,1 C 72 % 1018,3 hPa 0,0 l/m 2 min 0 min 699 W/m 9,0 km/h (2 Bft) 93,62 %
14.07.2018 11:26 23,4 C 32,2 C 21,1 C 72 % 1018,3 hPa 0,0 l/m 2 min 0 min 685 W/m 9,0 km/h (2 Bft) 95,74 %
14.07.2018 11:28 23,5 C 31,7 C 21,1 C 70 % 1018,3 hPa 0,0 l/m 2 min 0 min 692 W/m 11,3 km/h (2 Bft) 93,62 %
14.07.2018 11:30 23,6 C 30,6 C 21,1 C 69 % 1018,2 hPa 0,0 l/m 2 min 0 min 709 W/m 11,3 km/h (2 Bft) 95,74 %
14.07.2018 11:32 23,7 C 31,7 C 21,1 C 70 % 1018,3 hPa 0,0 l/m 2 min 0 min 699 W/m 11,3 km/h (2 Bft) 95,74 %
14.07.2018 11:34 23,8 C 31,7 C 21,1 C 69 % 1018,3 hPa 0,0 l/m 2 min 0 min 716 W/m 9,0 km/h (2 Bft) 95,65 %
14.07.2018 11:36 23,9 C 31,7 C 21,7 C 69 % 1018,2 hPa 0,0 l/m 2 min 0 min 715 W/m 6,8 km/h (2 Bft) 95,74 %
14.07.2018 11:38 24,1 C 31,1 C 21,7 C 69 % 1018,2 hPa 0,0 l/m 2 min 0 min 718 W/m 6,8 km/h (2 Bft) 95,74 %
14.07.2018 11:40 24,2 C 31,7 C 21,7 C 68 % 1018,2 hPa 0,0 l/m 2 min 0 min 696 W/m 11,3 km/h (2 Bft) 95,74 %
14.07.2018 11:42 24,3 C 31,7 C 21,7 C 68 % 1018,2 hPa 0,0 l/m 2 min 0 min 697 W/m 11,3 km/h (2 Bft) 93,62 %
14.07.2018 11:44 24,4 C 32,2 C 21,1 C 68 % 1018,1 hPa 0,0 l/m 2 min 0 min 735 W/m 13,5 km/h (3 Bft) 95,74 %
14.07.2018 11:46 24,5 C 31,7 C 21,7 C 67 % 1018,1 hPa 0,0 l/m 2 min 0 min 750 W/m 9,0 km/h (2 Bft) 97,83 %
14.07.2018 11:48 24,6 C 31,1 C 21,7 C 66 % 1018,1 hPa 0,0 l/m 2 min 0 min 752 W/m 6,8 km/h (2 Bft) 97,87 %
14.07.2018 11:50 24,7 C 32,2 C 21,7 C 68 % 1018,0 hPa 0,0 l/m 2 min 0 min 735 W/m 11,3 km/h (2 Bft) 97,87 %
14.07.2018 11:52 24,8 C 32,8 C 21,7 C 66 % 1018,0 hPa 0,0 l/m 2 min 0 min 750 W/m 6,8 km/h (2 Bft) 97,87 %
14.07.2018 11:54 24,8 C 31,7 C 21,7 C 65 % 1018,0 hPa 0,0 l/m 2 min 0 min 756 W/m 9,0 km/h (2 Bft) 97,87 %
14.07.2018 11:56 24,9 C 30,0 C 21,7 C 65 % 1018,0 hPa 0,0 l/m 2 min 0 min 742 W/m 15,8 km/h (3 Bft) 97,87 %
14.07.2018 11:58 24,9 C 31,7 C 21,7 C 66 % 1018,0 hPa 0,0 l/m 2 min 0 min 748 W/m 9,0 km/h (2 Bft) 95,65 %
14.07.2018 12:00 25,1 C 32,2 C 22,2 C 66 % 1018,0 hPa 0,0 l/m 2 min 0 min 762 W/m 6,8 km/h (2 Bft) 97,87 %
14.07.2018 12:02 25,1 C 32,8 C 22,2 C 67 % 1018,0 hPa 0,0 l/m 2 min 0 min 762 W/m 11,3 km/h (2 Bft) 95,74 %
14.07.2018 12:04 25,2 C 32,8 C 22,2 C 65 % 1017,9 hPa 0,0 l/m 2 min 0 min 764 W/m 9,0 km/h (2 Bft) 97,87 %
14.07.2018 12:08 25,3 C 32,8 C 21,7 C 64 % 1017,9 hPa 0,0 l/m 4 min 0 min 772 W/m 15,8 km/h (3 Bft) 96,67 %
14.07.2018 12:10 25,4 C 32,8 C 22,2 C 64 % 1017,9 hPa 0,0 l/m 2 min 0 min 766 W/m 9,0 km/h (2 Bft) 97,87 %
14.07.2018 12:12 25,4 C 32,8 C 22,2 C 64 % 1017,9 hPa 0,0 l/m 2 min 0 min 762 W/m 6,8 km/h (2 Bft) 97,87 %
14.07.2018 12:14 25,6 C 32,8 C 22,2 C 64 % 1017,9 hPa 0,0 l/m 2 min 0 min 765 W/m 6,8 km/h (2 Bft) 97,87 %
14.07.2018 12:16 25,6 C 33,9 C 22,2 C 64 % 1017,9 hPa 0,0 l/m 2 min 0 min 795 W/m 6,8 km/h (2 Bft) 100,00 %
14.07.2018 12:18 25,7 C 33,3 C 22,2 C 63 % 1017,8 hPa 0,0 l/m 2 min 0 min 792 W/m 11,3 km/h (2 Bft) 100,00 %
14.07.2018 12:20 25,7 C 31,7 C 22,2 C 62 % 1017,7 hPa 0,0 l/m 2 min 0 min 800 W/m 13,5 km/h (3 Bft) 95,74 %
14.07.2018 12:22 25,8 C 32,8 C 22,2 C 63 % 1017,7 hPa 0,0 l/m 2 min 0 min 805 W/m 9,0 km/h (2 Bft) 100,00 %
14.07.2018 12:24 25,8 C 33,9 C 22,2 C 63 % 1017,7 hPa 0,0 l/m 2 min 0 min 801 W/m 9,0 km/h (2 Bft) 100,00 %
14.07.2018 12:26 25,9 C 35,0 C 22,2 C 63 % 1017,7 hPa 0,0 l/m 2 min 0 min 809 W/m 6,8 km/h (2 Bft) 100,00 %
14.07.2018 12:28 26,0 C 34,4 C 22,8 C 62 % 1017,7 hPa 0,0 l/m 2 min 0 min 808 W/m 4,5 km/h (1 Bft) 100,00 %
14.07.2018 12:30 26,1 C 35,0 C 22,8 C 64 % 1017,7 hPa 0,0 l/m 2 min 0 min 808 W/m 4,5 km/h (1 Bft) 97,83 %
14.07.2018 12:32 26,2 C 34,4 C 22,8 C 63 % 1017,6 hPa 0,0 l/m 2 min 0 min 820 W/m 9,0 km/h (2 Bft) 97,87 %
14.07.2018 12:34 26,2 C 33,3 C 22,8 C 61 % 1017,7 hPa 0,0 l/m 2 min 0 min 823 W/m 11,3 km/h (2 Bft) 100,00 %
14.07.2018 12:36 26,3 C 33,3 C 22,8 C 61 % 1017,7 hPa 0,0 l/m 2 min 0 min 819 W/m 13,5 km/h (3 Bft) 100,00 %
14.07.2018 12:38 26,3 C 35,0 C 22,8 C 61 % 1017,7 hPa 0,0 l/m 2 min 0 min 808 W/m 9,0 km/h (2 Bft) 100,00 %
14.07.2018 12:40 26,4 C 35,0 C 22,8 C 62 % 1017,7 hPa 0,0 l/m 2 min 0 min 802 W/m 6,8 km/h (2 Bft) 100,00 %
14.07.2018 12:42 26,4 C 35,0 C 22,8 C 60 % 1017,7 hPa 0,0 l/m 2 min 0 min 813 W/m 13,5 km/h (3 Bft) 100,00 %
14.07.2018 12:44 26,5 C 35,6 C 22,8 C 60 % 1017,7 hPa 0,0 l/m 2 min 0 min 825 W/m 6,8 km/h (2 Bft) 100,00 %
14.07.2018 12:46 26,5 C 34,4 C 22,8 C 60 % 1017,6 hPa 0,0 l/m 2 min 0 min 834 W/m 9,0 km/h (2 Bft) 100,00 %
14.07.2018 12:48 26,6 C 34,4 C 22,8 C 60 % 1017,6 hPa 0,0 l/m 2 min 0 min 836 W/m 4,5 km/h (1 Bft) 100,00 %
14.07.2018 12:50 26,6 C 33,3 C 23,3 C 60 % 1017,6 hPa 0,0 l/m 2 min 0 min 840 W/m 9,0 km/h (2 Bft) 100,00 %
14.07.2018 12:52 26,7 C 34,4 C 23,3 C 60 % 1017,6 hPa 0,0 l/m 2 min 0 min 842 W/m 4,5 km/h (1 Bft) 100,00 %
14.07.2018 12:54 26,7 C 33,9 C 23,3 C 60 % 1017,7 hPa 0,0 l/m 2 min 0 min 843 W/m 6,8 km/h (2 Bft) 100,00 %
14.07.2018 12:56 26,7 C 33,9 C 23,3 C 59 % 1017,7 hPa 0,0 l/m 2 min 0 min 849 W/m 9,0 km/h (2 Bft) 100,00 %
14.07.2018 12:58 26,7 C 34,4 C 22,8 C 59 % 1017,6 hPa 0,0 l/m 2 min 0 min 860 W/m 11,3 km/h (2 Bft) 100,00 %
14.07.2018 13:00 26,7 C 34,4 C 22,8 C 58 % 1017,6 hPa 0,0 l/m 2 min 0 min 860 W/m 13,5 km/h (3 Bft) 100,00 %
14.07.2018 13:02 26,7 C 33,9 C 22,8 C 58 % 1017,6 hPa 0,0 l/m 2 min 0 min 861 W/m 9,0 km/h (2 Bft) 100,00 %
14.07.2018 13:04 26,7 C 34,4 C 23,3 C 59 % 1017,6 hPa 0,0 l/m 2 min 0 min 859 W/m 6,8 km/h (2 Bft) 95,74 %
14.07.2018 13:06 26,7 C 33,9 C 23,3 C 60 % 1017,6 hPa 0,0 l/m 2 min 0 min 852 W/m 9,0 km/h (2 Bft) 97,83 %
14.07.2018 13:08 26,7 C 33,3 C 23,3 C 59 % 1017,6 hPa 0,0 l/m 2 min 0 min 734 W/m 9,0 km/h (2 Bft) 97,87 %
14.07.2018 13:10 26,7 C 33,9 C 23,3 C 58 % 1017,6 hPa 0,0 l/m 2 min 0 min 868 W/m 9,0 km/h (2 Bft) 97,87 %
14.07.2018 13:12 26,7 C 34,4 C 23,3 C 59 % 1017,6 hPa 0,0 l/m 2 min 0 min 883 W/m 11,3 km/h (2 Bft) 97,87 %
14.07.2018 13:14 26,8 C 33,9 C 23,9 C 58 % 1017,5 hPa 0,0 l/m 2 min 0 min 879 W/m 6,8 km/h (2 Bft) 97,87 %
14.07.2018 13:16 26,7 C 34,4 C 23,3 C 58 % 1017,5 hPa 0,0 l/m 2 min 0 min 866 W/m 13,5 km/h (3 Bft) 97,87 %
14.07.2018 13:18 26,7 C 35,0 C 23,3 C 57 % 1017,5 hPa 0,0 l/m 2 min 0 min 866 W/m 6,8 km/h (2 Bft) 97,83 %
14.07.2018 13:20 26,7 C 33,9 C 23,3 C 57 % 1017,5 hPa 0,0 l/m 2 min 0 min 869 W/m 9,0 km/h (2 Bft) 97,87 %
14.07.2018 13:22 26,7 C 34,4 C 23,3 C 57 % 1017,5 hPa 0,0 l/m 2 min 0 min 874 W/m 4,5 km/h (1 Bft) 95,83 %
14.07.2018 13:24 26,7 C 34,4 C 23,3 C 57 % 1017,4 hPa 0,0 l/m 2 min 0 min 885 W/m 6,8 km/h (2 Bft) 97,87 %
14.07.2018 13:26 26,7 C 33,3 C 23,3 C 56 % 1017,4 hPa 0,0 l/m 2 min 0 min 881 W/m 9,0 km/h (2 Bft) 97,87 %
14.07.2018 13:28 26,7 C 34,4 C 23,3 C 57 % 1017,5 hPa 0,0 l/m 2 min 0 min 893 W/m 9,0 km/h (2 Bft) 97,87 %
14.07.2018 13:30 26,7 C 35,0 C 23,9 C 58 % 1017,4 hPa 0,0 l/m 2 min 0 min 887 W/m 9,0 km/h (2 Bft) 97,83 %
14.07.2018 13:32 26,7 C 34,4 C 23,9 C 57 % 1017,4 hPa 0,0 l/m 2 min 0 min 893 W/m 9,0 km/h (2 Bft) 97,87 %
14.07.2018 13:34 26,7 C 33,3 C 24,4 C 56 % 1017,5 hPa 0,0 l/m 2 min 0 min 905 W/m 13,5 km/h (3 Bft) 97,87 %
14.07.2018 13:36 26,7 C 33,9 C 23,9 C 56 % 1017,4 hPa 0,0 l/m 2 min 0 min 916 W/m 11,3 km/h (2 Bft) 95,74 %
14.07.2018 13:38 26,7 C 32,8 C 24,4 C 55 % 1017,4 hPa 0,0 l/m 2 min 0 min 916 W/m 9,0 km/h (2 Bft) 93,62 %
14.07.2018 13:40 26,8 C 30,6 C 24,4 C 56 % 1017,4 hPa 0,0 l/m 2 min 0 min 898 W/m 11,3 km/h (2 Bft) 95,65 %
14.07.2018 13:42 26,8 C 28,9 C 24,4 C 55 % 1017,4 hPa 0,0 l/m 2 min 0 min 889 W/m 11,3 km/h (2 Bft) 95,74 %
14.07.2018 13:44 26,8 C 27,8 C 24,4 C 55 % 1017,4 hPa 0,0 l/m 2 min 0 min 899 W/m 9,0 km/h (2 Bft) 97,87 %
14.07.2018 13:46 26,8 C 27,8 C 24,4 C 55 % 1017,4 hPa 0,0 l/m 2 min 0 min 915 W/m 6,8 km/h (2 Bft) 95,74 %
14.07.2018 13:48 26,8 C 27,2 C 24,4 C 54 % 1017,3 hPa 0,0 l/m 2 min 0 min 938 W/m 6,8 km/h (2 Bft) 97,87 %
14.07.2018 13:50 26,8 C 27,2 C 24,4 C 55 % 1017,3 hPa 0,0 l/m 2 min 0 min 943 W/m 13,5 km/h (3 Bft) 100,00 %
14.07.2018 13:52 26,8 C 26,7 C 23,9 C 55 % 1017,3 hPa 0,0 l/m 2 min 0 min 935 W/m 15,8 km/h (3 Bft) 97,87 %
14.07.2018 13:54 26,8 C 26,1 C 24,4 C 54 % 1017,3 hPa 0,0 l/m 2 min 0 min 929 W/m 11,3 km/h (2 Bft) 97,87 %
14.07.2018 13:56 26,8 C 26,1 C 23,9 C 56 % 1017,3 hPa 0,0 l/m 2 min 0 min 927 W/m 9,0 km/h (2 Bft) 97,87 %
14.07.2018 13:58 26,8 C 26,7 C 24,4 C 55 % 1017,3 hPa 0,0 l/m 2 min 0 min 930 W/m 6,8 km/h (2 Bft) 97,87 %
14.07.2018 14:00 26,8 C 26,1 C 24,4 C 56 % 1017,2 hPa 0,0 l/m 0 min 0 min 404 W/m 9,0 km/h (2 Bft) 95,74 %
14.07.2018 14:02 26,7 C 26,1 C 24,4 C 54 % 1017,2 hPa 0,0 l/m 0 min 0 min 165 W/m 20,3 km/h (4 Bft) 95,74 %
14.07.2018 14:04 26,7 C 26,1 C 24,4 C 56 % 1017,2 hPa 0,0 l/m 2 min 0 min 884 W/m 11,3 km/h (2 Bft) 97,83 %
14.07.2018 14:06 26,7 C 26,1 C 24,4 C 55 % 1017,2 hPa 0,0 l/m 2 min 0 min 892 W/m 11,3 km/h (2 Bft) 97,87 %
14.07.2018 14:08 26,6 C 26,7 C 24,4 C 55 % 1017,2 hPa 0,0 l/m 2 min 0 min 891 W/m 9,0 km/h (2 Bft) 97,87 %
14.07.2018 14:10 26,6 C 26,7 C 24,4 C 55 % 1017,2 hPa 0,0 l/m 2 min 0 min 894 W/m 6,8 km/h (2 Bft) 97,87 %
14.07.2018 14:12 26,6 C 27,2 C 24,4 C 55 % 1017,2 hPa 0,0 l/m 2 min 0 min 893 W/m 6,8 km/h (2 Bft) 97,87 %
14.07.2018 14:14 26,6 C 26,7 C 24,4 C 53 % 1017,2 hPa 0,0 l/m 2 min 0 min 893 W/m 15,8 km/h (3 Bft) 97,87 %
14.07.2018 14:16 26,6 C 26,7 C 24,4 C 53 % 1017,1 hPa 0,0 l/m 2 min 0 min 900 W/m 15,8 km/h (3 Bft) 97,83 %
14.07.2018 14:18 26,6 C 26,7 C 24,4 C 54 % 1017,2 hPa 0,0 l/m 2 min 0 min 903 W/m 13,5 km/h (3 Bft) 95,74 %
14.07.2018 14:20 26,6 C 26,7 C 23,9 C 55 % 1017,1 hPa 0,0 l/m 2 min 0 min 894 W/m 11,3 km/h (2 Bft) 97,87 %
14.07.2018 14:22 26,6 C 26,7 C 24,4 C 55 % 1017,1 hPa 0,0 l/m 2 min 0 min 895 W/m 18,0 km/h (3 Bft) 97,87 %
14.07.2018 14:24 26,6 C 26,7 C 24,4 C 55 % 1017,1 hPa 0,0 l/m 2 min 0 min 893 W/m 13,5 km/h (3 Bft) 97,87 %
14.07.2018 14:26 26,6 C 26,7 C 24,4 C 54 % 1017,1 hPa 0,0 l/m 2 min 0 min 894 W/m 9,0 km/h (2 Bft) 95,74 %
14.07.2018 14:28 26,6 C 26,7 C 24,4 C 54 % 1017,1 hPa 0,0 l/m 2 min 0 min 892 W/m 9,0 km/h (2 Bft) 97,83 %
14.07.2018 14:30 26,5 C 26,7 C 23,9 C 55 % 1017,1 hPa 0,0 l/m 2 min 0 min 894 W/m 6,8 km/h (2 Bft) 95,74 %
14.07.2018 14:32 26,5 C 26,7 C 23,9 C 54 % 1017,1 hPa 0,0 l/m 2 min 0 min 900 W/m 6,8 km/h (2 Bft) 95,74 %
14.07.2018 14:34 26,5 C 26,7 C 24,4 C 55 % 1016,9 hPa 0,0 l/m 2 min 0 min 898 W/m 9,0 km/h (2 Bft) 95,74 %
14.07.2018 14:36 26,5 C 26,1 C 24,4 C 55 % 1016,8 hPa 0,0 l/m 2 min 0 min 891 W/m 6,8 km/h (2 Bft) 97,87 %
14.07.2018 14:38 26,5 C 26,7 C 24,4 C 56 % 1016,9 hPa 0,0 l/m 2 min 0 min 892 W/m 11,3 km/h (2 Bft) 97,87 %
14.07.2018 14:40 26,4 C 26,7 C 24,4 C 55 % 1016,9 hPa 0,0 l/m 2 min 0 min 883 W/m 13,5 km/h (3 Bft) 95,65 %
14.07.2018 14:42 26,5 C 26,7 C 24,4 C 55 % 1016,9 hPa 0,0 l/m 2 min 0 min 864 W/m 11,3 km/h (2 Bft) 95,74 %
14.07.2018 14:44 26,4 C 26,7 C 24,4 C 55 % 1016,9 hPa 0,0 l/m 2 min 0 min 852 W/m 6,8 km/h (2 Bft) 97,87 %
14.07.2018 14:46 26,5 C 26,7 C 23,9 C 55 % 1016,9 hPa 0,0 l/m 2 min 0 min 853 W/m 9,0 km/h (2 Bft) 95,74 %
14.07.2018 14:48 26,5 C 26,7 C 23,9 C 55 % 1016,8 hPa 0,0 l/m 2 min 0 min 874 W/m 11,3 km/h (2 Bft) 95,74 %
14.07.2018 14:50 26,5 C 26,7 C 23,9 C 55 % 1016,8 hPa 0,0 l/m 2 min 0 min 869 W/m 9,0 km/h (2 Bft) 95,74 %
14.07.2018 14:52 26,5 C 26,7 C 23,9 C 55 % 1016,8 hPa 0,0 l/m 2 min 0 min 876 W/m 6,8 km/h (2 Bft) 97,83 %
14.07.2018 14:54 26,5 C 26,7 C 23,9 C 56 % 1016,7 hPa 0,0 l/m 2 min 0 min 887 W/m 4,5 km/h (1 Bft) 97,87 %
14.07.2018 14:56 26,5 C 27,2 C 24,4 C 55 % 1016,8 hPa 0,0 l/m 2 min 0 min 894 W/m 9,0 km/h (2 Bft) 97,87 %
14.07.2018 14:58 26,6 C 27,2 C 24,4 C 54 % 1016,7 hPa 0,0 l/m 2 min 0 min 890 W/m 6,8 km/h (2 Bft) 95,74 %
14.07.2018 15:00 26,6 C 27,2 C 24,4 C 53 % 1016,7 hPa 0,0 l/m 2 min 0 min 883 W/m 9,0 km/h (2 Bft) 97,87 %
14.07.2018 15:02 26,6 C 27,2 C 25,0 C 53 % 1016,8 hPa 0,0 l/m 2 min 0 min 878 W/m 6,8 km/h (2 Bft) 95,74 %
14.07.2018 15:04 26,7 C 27,2 C 24,4 C 53 % 1016,8 hPa 0,0 l/m 2 min 0 min 882 W/m 15,8 km/h (3 Bft) 93,62 %
14.07.2018 15:06 26,7 C 27,2 C 24,4 C 53 % 1016,8 hPa 0,0 l/m 2 min 0 min 891 W/m 20,3 km/h (4 Bft) 97,87 %
14.07.2018 15:08 26,7 C 27,2 C 24,4 C 53 % 1016,8 hPa 0,0 l/m 2 min 0 min 884 W/m 9,0 km/h (2 Bft) 97,87 %
14.07.2018 15:10 26,8 C 27,2 C 24,4 C 53 % 1016,8 hPa 0,0 l/m 2 min 0 min 870 W/m 13,5 km/h (3 Bft) 97,87 %
14.07.2018 15:12 26,8 C 27,2 C 24,4 C 53 % 1016,7 hPa 0,0 l/m 2 min 0 min 873 W/m 11,3 km/h (2 Bft) 100,00 %
14.07.2018 15:14 26,8 C 27,2 C 24,4 C 54 % 1016,7 hPa 0,0 l/m 2 min 0 min 878 W/m 13,5 km/h (3 Bft) 97,87 %
14.07.2018 15:16 26,8 C 27,2 C 25,0 C 53 % 1016,7 hPa 0,0 l/m 2 min 0 min 878 W/m 11,3 km/h (2 Bft) 97,83 %
14.07.2018 15:18 26,9 C 27,8 C 25,0 C 54 % 1016,7 hPa 0,0 l/m 2 min 0 min 871 W/m 6,8 km/h (2 Bft) 97,87 %
14.07.2018 15:20 26,9 C 27,8 C 25,0 C 54 % 1016,7 hPa 0,0 l/m 2 min 0 min 858 W/m 13,5 km/h (3 Bft) 97,87 %
14.07.2018 15:22 26,9 C 27,2 C 24,4 C 54 % 1016,7 hPa 0,0 l/m 2 min 0 min 856 W/m 9,0 km/h (2 Bft) 97,87 %
14.07.2018 15:24 27,0 C 27,2 C 24,4 C 53 % 1016,6 hPa 0,0 l/m 2 min 0 min 860 W/m 9,0 km/h (2 Bft) 97,87 %
14.07.2018 15:26 27,0 C 27,2 C 24,4 C 54 % 1016,6 hPa 0,0 l/m 2 min 0 min 862 W/m 9,0 km/h (2 Bft) 97,87 %
14.07.2018 15:28 27,1 C 27,2 C 24,4 C 54 % 1016,5 hPa 0,0 l/m 2 min 0 min 874 W/m 11,3 km/h (2 Bft) 97,83 %
14.07.2018 15:30 27,1 C 27,2 C 24,4 C 53 % 1016,5 hPa 0,0 l/m 2 min 0 min 845 W/m 15,8 km/h (3 Bft) 97,87 %
14.07.2018 15:32 27,1 C 27,2 C 24,4 C 53 % 1016,6 hPa 0,0 l/m 2 min 0 min 830 W/m 13,5 km/h (3 Bft) 95,74 %
14.07.2018 15:34 27,1 C 26,7 C 24,4 C 51 % 1016,5 hPa 0,0 l/m 2 min 0 min 844 W/m 18,0 km/h (3 Bft) 97,87 %
14.07.2018 15:36 27,1 C 27,2 C 24,4 C 53 % 1016,5 hPa 0,0 l/m 2 min 0 min 849 W/m 6,8 km/h (2 Bft) 95,74 %
14.07.2018 15:38 27,2 C 27,2 C 24,4 C 53 % 1016,4 hPa 0,0 l/m 2 min 0 min 846 W/m 11,3 km/h (2 Bft) 95,74 %
14.07.2018 15:40 27,2 C 27,8 C 24,4 C 52 % 1016,4 hPa 0,0 l/m 2 min 0 min 841 W/m 9,0 km/h (2 Bft) 95,65 %
14.07.2018 15:42 27,2 C 27,8 C 24,4 C 52 % 1016,4 hPa 0,0 l/m 2 min 0 min 836 W/m 15,8 km/h (3 Bft) 97,87 %
14.07.2018 15:44 27,2 C 28,3 C 25,0 C 52 % 1016,4 hPa 0,0 l/m 2 min 0 min 842 W/m 11,3 km/h (2 Bft) 97,87 %
14.07.2018 15:46 27,3 C 28,9 C 25,0 C 51 % 1016,4 hPa 0,0 l/m 2 min 0 min 834 W/m 15,8 km/h (3 Bft) 95,74 %
14.07.2018 15:48 27,3 C 29,4 C 25,0 C 50 % 1016,4 hPa 0,0 l/m 2 min 0 min 828 W/m 15,8 km/h (3 Bft) 97,87 %
14.07.2018 15:50 27,3 C 30,6 C 25,0 C 50 % 1016,4 hPa 0,0 l/m 2 min 0 min 825 W/m 13,5 km/h (3 Bft) 97,87 %
14.07.2018 15:52 27,4 C 31,1 C 25,0 C 49 % 1016,4 hPa 0,0 l/m 2 min 0 min 832 W/m 13,5 km/h (3 Bft) 97,83 %
14.07.2018 15:54 27,4 C 31,1 C 25,0 C 50 % 1016,4 hPa 0,0 l/m 2 min 0 min 831 W/m 11,3 km/h (2 Bft) 95,74 %
14.07.2018 15:56 27,4 C 31,1 C 25,0 C 50 % 1016,4 hPa 0,0 l/m 2 min 0 min 827 W/m 6,8 km/h (2 Bft) 95,74 %
14.07.2018 15:58 27,4 C 30,6 C 25,0 C 48 % 1016,4 hPa 0,0 l/m 2 min 0 min 823 W/m 4,5 km/h (1 Bft) 97,87 %
14.07.2018 16:00 27,5 C 31,7 C 25,0 C 49 % 1016,3 hPa 0,0 l/m 2 min 0 min 820 W/m 4,5 km/h (1 Bft) 97,87 %
14.07.2018 16:02 27,5 C 32,8 C 25,0 C 50 % 1016,3 hPa 0,0 l/m 2 min 0 min 818 W/m 9,0 km/h (2 Bft) 97,83 %
14.07.2018 16:04 27,6 C 32,8 C 25,0 C 48 % 1016,3 hPa 0,0 l/m 2 min 0 min 810 W/m 15,8 km/h (3 Bft) 97,87 %
14.07.2018 16:06 27,6 C 31,7 C 25,0 C 47 % 1016,3 hPa 0,0 l/m 2 min 0 min 807 W/m 11,3 km/h (2 Bft) 97,87 %
14.07.2018 16:08 27,6 C 32,2 C 25,0 C 47 % 1016,2 hPa 0,0 l/m 2 min 0 min 806 W/m 9,0 km/h (2 Bft) 97,87 %
14.07.2018 16:10 27,6 C 31,7 C 25,0 C 47 % 1016,1 hPa 0,0 l/m 2 min 0 min 805 W/m 6,8 km/h (2 Bft) 97,87 %
14.07.2018 16:12 27,6 C 31,7 C 25,0 C 47 % 1016,1 hPa 0,0 l/m 2 min 0 min 801 W/m 9,0 km/h (2 Bft) 93,62 %
14.07.2018 16:14 27,6 C 31,1 C 25,0 C 46 % 1016,2 hPa 0,0 l/m 2 min 0 min 800 W/m 9,0 km/h (2 Bft) 95,74 %
14.07.2018 16:16 27,7 C 31,7 C 25,0 C 48 % 1016,1 hPa 0,0 l/m 2 min 0 min 798 W/m 6,8 km/h (2 Bft) 95,65 %
14.07.2018 16:18 27,7 C 32,2 C 25,6 C 48 % 1016,1 hPa 0,0 l/m 2 min 0 min 798 W/m 13,5 km/h (3 Bft) 97,87 %
14.07.2018 16:20 27,7 C 32,8 C 25,0 C 48 % 1016,1 hPa 0,0 l/m 2 min 0 min 798 W/m 15,8 km/h (3 Bft) 97,87 %
14.07.2018 16:22 27,7 C 32,2 C 25,6 C 48 % 1016,1 hPa 0,0 l/m 2 min 0 min 794 W/m 15,8 km/h (3 Bft) 97,87 %
14.07.2018 16:24 27,7 C 32,2 C 25,0 C 47 % 1016,1 hPa 0,0 l/m 2 min 0 min 786 W/m 18,0 km/h (3 Bft) 95,74 %
14.07.2018 16:26 27,7 C 32,2 C 25,0 C 48 % 1016,0 hPa 0,0 l/m 2 min 0 min 782 W/m 11,3 km/h (2 Bft) 97,83 %
14.07.2018 16:28 27,7 C 32,2 C 25,0 C 48 % 1016,1 hPa 0,0 l/m 2 min 0 min 780 W/m 9,0 km/h (2 Bft) 100,00 %
14.07.2018 16:30 27,8 C 32,2 C 25,0 C 48 % 1016,0 hPa 0,0 l/m 2 min 0 min 770 W/m 11,3 km/h (2 Bft) 100,00 %
14.07.2018 16:32 27,8 C 32,2 C 25,0 C 48 % 1016,1 hPa 0,0 l/m 2 min 0 min 764 W/m 9,0 km/h (2 Bft) 100,00 %
14.07.2018 16:34 27,8 C 32,2 C 25,0 C 49 % 1016,1 hPa 0,0 l/m 2 min 0 min 747 W/m 15,8 km/h (3 Bft) 97,87 %
14.07.2018 16:36 27,8 C 31,7 C 25,0 C 48 % 1016,1 hPa 0,0 l/m 2 min 0 min 735 W/m 18,0 km/h (3 Bft) 100,00 %
14.07.2018 16:38 27,8 C 31,7 C 25,0 C 49 % 1016,1 hPa 0,0 l/m 2 min 0 min 739 W/m 9,0 km/h (2 Bft) 100,00 %
14.07.2018 16:40 27,8 C 30,6 C 25,0 C 48 % 1016,1 hPa 0,0 l/m 2 min 0 min 746 W/m 11,3 km/h (2 Bft) 100,00 %
14.07.2018 16:42 27,8 C 30,0 C 25,0 C 49 % 1016,0 hPa 0,0 l/m 2 min 0 min 742 W/m 11,3 km/h (2 Bft) 97,87 %
14.07.2018 16:44 27,8 C 31,1 C 25,0 C 48 % 1016,0 hPa 0,0 l/m 2 min 0 min 746 W/m 4,5 km/h (1 Bft) 97,87 %
14.07.2018 16:46 27,8 C 31,1 C 25,0 C 49 % 1015,9 hPa 0,0 l/m 2 min 0 min 740 W/m 9,0 km/h (2 Bft) 95,74 %
14.07.2018 16:48 27,8 C 30,6 C 25,0 C 49 % 1015,9 hPa 0,0 l/m 2 min 0 min 733 W/m 11,3 km/h (2 Bft) 100,00 %
14.07.2018 16:50 27,8 C 30,6 C 25,0 C 49 % 1016,0 hPa 0,0 l/m 2 min 0 min 734 W/m 20,3 km/h (4 Bft) 100,00 %
14.07.2018 16:52 27,8 C 30,6 C 25,0 C 48 % 1016,0 hPa 0,0 l/m 2 min 0 min 730 W/m 11,3 km/h (2 Bft) 97,87 %
14.07.2018 16:54 27,8 C 30,6 C 25,0 C 49 % 1016,0 hPa 0,0 l/m 2 min 0 min 727 W/m 6,8 km/h (2 Bft) 97,87 %
14.07.2018 16:56 27,8 C 30,6 C 25,6 C 48 % 1015,9 hPa 0,0 l/m 2 min 0 min 723 W/m 9,0 km/h (2 Bft) 95,74 %
14.07.2018 16:58 27,8 C 31,1 C 25,6 C 49 % 1015,9 hPa 0,0 l/m 2 min 0 min 721 W/m 13,5 km/h (3 Bft) 100,00 %
14.07.2018 17:00 27,8 C 30,6 C 25,6 C 48 % 1015,9 hPa 0,0 l/m 2 min 0 min 716 W/m 15,8 km/h (3 Bft) 100,00 %
14.07.2018 17:02 27,8 C 30,6 C 25,6 C 48 % 1016,0 hPa 0,0 l/m 2 min 0 min 714 W/m 11,3 km/h (2 Bft) 97,83 %
14.07.2018 17:04 27,8 C 30,0 C 25,6 C 47 % 1016,0 hPa 0,0 l/m 2 min 0 min 713 W/m 11,3 km/h (2 Bft) 97,87 %
14.07.2018 17:06 27,8 C 30,0 C 25,0 C 46 % 1015,9 hPa 0,0 l/m 2 min 0 min 703 W/m 6,8 km/h (2 Bft) 97,87 %
14.07.2018 17:08 27,9 C 30,6 C 25,6 C 47 % 1016,1 hPa 0,0 l/m 2 min 0 min 703 W/m 13,5 km/h (3 Bft) 97,87 %
14.07.2018 17:10 27,9 C 30,0 C 25,0 C 46 % 1016,0 hPa 0,0 l/m 2 min 0 min 698 W/m 4,5 km/h (1 Bft) 97,87 %
14.07.2018 17:12 27,9 C 29,4 C 25,6 C 46 % 1015,9 hPa 0,0 l/m 2 min 0 min 689 W/m 9,0 km/h (2 Bft) 95,74 %
14.07.2018 17:14 27,9 C 29,4 C 25,6 C 45 % 1015,9 hPa 0,0 l/m 2 min 0 min 687 W/m 13,5 km/h (3 Bft) 97,83 %
14.07.2018 17:16 27,9 C 28,9 C 25,6 C 45 % 1015,9 hPa 0,0 l/m 2 min 0 min 686 W/m 11,3 km/h (2 Bft) 97,87 %
14.07.2018 17:18 27,9 C 28,9 C 25,6 C 45 % 1015,9 hPa 0,0 l/m 2 min 0 min 686 W/m 9,0 km/h (2 Bft) 95,74 %
14.07.2018 17:20 27,9 C 28,3 C 25,6 C 44 % 1015,9 hPa 0,0 l/m 2 min 0 min 682 W/m 4,5 km/h (1 Bft) 97,87 %
14.07.2018 17:22 28,0 C 28,3 C 25,6 C 46 % 1015,8 hPa 0,0 l/m 2 min 0 min 675 W/m 9,0 km/h (2 Bft) 97,87 %
14.07.2018 17:24 28,0 C 28,3 C 25,6 C 46 % 1015,9 hPa 0,0 l/m 2 min 0 min 665 W/m 9,0 km/h (2 Bft) 97,87 %
14.07.2018 17:26 28,0 C 28,9 C 25,6 C 46 % 1015,9 hPa 0,0 l/m 2 min 0 min 661 W/m 9,0 km/h (2 Bft) 97,83 %
14.07.2018 17:28 28,1 C 28,9 C 25,6 C 47 % 1015,8 hPa 0,0 l/m 2 min 0 min 659 W/m 4,5 km/h (1 Bft) 97,87 %
14.07.2018 17:30 28,1 C 29,4 C 25,6 C 46 % 1015,8 hPa 0,0 l/m 2 min 0 min 651 W/m 4,5 km/h (1 Bft) 97,87 %
14.07.2018 17:32 28,1 C 29,4 C 25,6 C 47 % 1015,8 hPa 0,0 l/m 2 min 0 min 638 W/m 9,0 km/h (2 Bft) 97,87 %
14.07.2018 17:34 28,1 C 28,9 C 25,6 C 47 % 1015,7 hPa 0,0 l/m 2 min 0 min 633 W/m 6,8 km/h (2 Bft) 97,87 %
14.07.2018 17:36 28,2 C 28,9 C 25,6 C 47 % 1015,7 hPa 0,0 l/m 2 min 0 min 625 W/m 13,5 km/h (3 Bft) 97,83 %
14.07.2018 17:38 28,2 C 28,3 C 25,6 C 48 % 1015,7 hPa 0,0 l/m 2 min 0 min 624 W/m 9,0 km/h (2 Bft) 97,87 %
14.07.2018 17:40 28,2 C 28,3 C 25,6 C 48 % 1015,7 hPa 0,0 l/m 2 min 0 min 622 W/m 13,5 km/h (3 Bft) 97,87 %
14.07.2018 17:42 28,2 C 28,3 C 25,6 C 47 % 1015,8 hPa 0,0 l/m 2 min 0 min 619 W/m 13,5 km/h (3 Bft) 97,87 %
14.07.2018 17:44 28,2 C 28,3 C 25,6 C 47 % 1015,8 hPa 0,0 l/m 2 min 0 min 613 W/m 13,5 km/h (3 Bft) 97,87 %
14.07.2018 17:46 28,1 C 27,8 C 25,6 C 47 % 1015,7 hPa 0,0 l/m 2 min 0 min 607 W/m 6,8 km/h (2 Bft) 95,74 %
14.07.2018 17:48 28,1 C 27,8 C 25,6 C 47 % 1015,7 hPa 0,0 l/m 2 min 0 min 603 W/m 9,0 km/h (2 Bft) 93,48 %
14.07.2018 17:50 28,1 C 27,8 C 25,6 C 48 % 1015,6 hPa 0,0 l/m 2 min 0 min 602 W/m 9,0 km/h (2 Bft) 100,00 %
14.07.2018 17:52 28,1 C 28,3 C 25,6 C 47 % 1015,7 hPa 0,0 l/m 2 min 0 min 603 W/m 18,0 km/h (3 Bft) 97,87 %
14.07.2018 17:54 28,1 C 28,3 C 25,6 C 46 % 1015,7 hPa 0,0 l/m 2 min 0 min 598 W/m 9,0 km/h (2 Bft) 100,00 %
14.07.2018 17:56 28,1 C 28,3 C 25,6 C 47 % 1015,7 hPa 0,0 l/m 2 min 0 min 594 W/m 11,3 km/h (2 Bft) 100,00 %
14.07.2018 17:58 28,1 C 28,3 C 26,1 C 47 % 1015,7 hPa 0,0 l/m 2 min 0 min 587 W/m 9,0 km/h (2 Bft) 97,83 %
14.07.2018 18:00 28,0 C 28,3 C 26,1 C 47 % 1015,7 hPa 0,0 l/m 2 min 0 min 583 W/m 11,3 km/h (2 Bft) 100,00 %
14.07.2018 18:02 28,0 C 28,3 C 26,1 C 46 % 1015,7 hPa 0,0 l/m 2 min 0 min 575 W/m 4,5 km/h (1 Bft) 100,00 %
14.07.2018 18:04 28,0 C 28,3 C 26,1 C 46 % 1015,7 hPa 0,0 l/m 2 min 0 min 574 W/m 9,0 km/h (2 Bft) 100,00 %
14.07.2018 18:08 28,0 C 27,8 C 25,6 C 46 % 1015,6 hPa 0,0 l/m 4 min 0 min 566 W/m 15,8 km/h (3 Bft) 98,97 %
14.07.2018 18:10 28,0 C 27,8 C 25,6 C 46 % 1015,7 hPa 0,0 l/m 2 min 0 min 560 W/m 11,3 km/h (2 Bft) 100,00 %
14.07.2018 18:12 28,0 C 27,8 C 25,6 C 47 % 1015,7 hPa 0,0 l/m 2 min 0 min 556 W/m 4,5 km/h (1 Bft) 100,00 %
14.07.2018 18:14 27,9 C 27,8 C 25,6 C 47 % 1015,7 hPa 0,0 l/m 2 min 0 min 552 W/m 13,5 km/h (3 Bft) 100,00 %
14.07.2018 18:16 27,9 C 27,8 C 25,6 C 46 % 1015,8 hPa 0,0 l/m 2 min 0 min 541 W/m 11,3 km/h (2 Bft) 100,00 %
14.07.2018 18:18 27,9 C 27,8 C 25,6 C 47 % 1015,7 hPa 0,0 l/m 2 min 0 min 533 W/m 6,8 km/h (2 Bft) 100,00 %
14.07.2018 18:20 27,8 C 27,8 C 25,6 C 47 % 1015,7 hPa 0,0 l/m 2 min 0 min 526 W/m 13,5 km/h (3 Bft) 100,00 %
14.07.2018 18:22 27,8 C 27,8 C 25,6 C 47 % 1015,7 hPa 0,0 l/m 2 min 0 min 521 W/m 9,0 km/h (2 Bft) 100,00 %
14.07.2018 18:24 27,8 C 27,8 C 25,6 C 47 % 1015,7 hPa 0,0 l/m 2 min 0 min 518 W/m 9,0 km/h (2 Bft) 100,00 %
14.07.2018 18:26 27,8 C 27,8 C 25,6 C 47 % 1015,7 hPa 0,0 l/m 2 min 0 min 513 W/m 13,5 km/h (3 Bft) 100,00 %
14.07.2018 18:28 27,8 C 27,8 C 25,6 C 46 % 1015,6 hPa 0,0 l/m 2 min 0 min 507 W/m 6,8 km/h (2 Bft) 100,00 %
14.07.2018 18:30 27,8 C 27,8 C 25,6 C 47 % 1015,6 hPa 0,0 l/m 2 min 0 min 502 W/m 11,3 km/h (2 Bft) 100,00 %
14.07.2018 18:32 27,8 C 27,8 C 25,6 C 47 % 1015,7 hPa 0,0 l/m 2 min 0 min 498 W/m 15,8 km/h (3 Bft) 97,87 %
14.07.2018 18:34 27,8 C 27,8 C 25,6 C 47 % 1015,6 hPa 0,0 l/m 2 min 0 min 494 W/m 9,0 km/h (2 Bft) 100,00 %
14.07.2018 18:36 27,8 C 27,8 C 25,6 C 46 % 1015,7 hPa 0,0 l/m 2 min 0 min 487 W/m 15,8 km/h (3 Bft) 100,00 %
14.07.2018 18:38 27,7 C 27,2 C 25,6 C 46 % 1015,7 hPa 0,0 l/m 2 min 0 min 480 W/m 9,0 km/h (2 Bft) 100,00 %
14.07.2018 18:40 27,7 C 27,8 C 25,6 C 47 % 1015,6 hPa 0,0 l/m 2 min 0 min 476 W/m 9,0 km/h (2 Bft) 100,00 %
14.07.2018 18:42 27,7 C 27,8 C 25,6 C 47 % 1015,7 hPa 0,0 l/m 2 min 0 min 470 W/m 9,0 km/h (2 Bft) 100,00 %
14.07.2018 18:44 27,7 C 27,2 C 25,6 C 46 % 1015,6 hPa 0,0 l/m 2 min 0 min 464 W/m 18,0 km/h (3 Bft) 100,00 %
14.07.2018 18:46 27,6 C 27,2 C 25,6 C 45 % 1015,6 hPa 0,0 l/m 2 min 0 min 461 W/m 6,8 km/h (2 Bft) 100,00 %
14.07.2018 18:48 27,6 C 27,2 C 25,6 C 46 % 1015,6 hPa 0,0 l/m 2 min 0 min 454 W/m 6,8 km/h (2 Bft) 100,00 %
14.07.2018 18:50 27,6 C 27,2 C 25,6 C 46 % 1015,6 hPa 0,0 l/m 2 min 0 min 446 W/m 11,3 km/h (2 Bft) 100,00 %
14.07.2018 18:52 27,6 C 27,2 C 25,6 C 47 % 1015,6 hPa 0,0 l/m 2 min 0 min 438 W/m 11,3 km/h (2 Bft) 100,00 %
14.07.2018 18:54 27,5 C 27,2 C 25,6 C 46 % 1015,6 hPa 0,0 l/m 2 min 0 min 436 W/m 9,0 km/h (2 Bft) 95,24 %
14.07.2018 18:56 27,5 C 27,2 C 25,6 C 47 % 1015,6 hPa 0,0 l/m 2 min 0 min 430 W/m 11,3 km/h (2 Bft) 93,62 %
14.07.2018 18:58 27,4 C 26,7 C 25,0 C 46 % 1015,6 hPa 0,0 l/m 2 min 0 min 422 W/m 18,0 km/h (3 Bft) 95,65 %
14.07.2018 19:00 27,4 C 26,7 C 25,0 C 47 % 1015,6 hPa 0,0 l/m 2 min 0 min 418 W/m 9,0 km/h (2 Bft) 93,62 %
14.07.2018 19:02 27,4 C 26,7 C 25,0 C 47 % 1015,6 hPa 0,0 l/m 2 min 0 min 414 W/m 6,8 km/h (2 Bft) 95,83 %
14.07.2018 19:04 27,4 C 26,7 C 25,0 C 48 % 1015,6 hPa 0,0 l/m 2 min 0 min 410 W/m 6,8 km/h (2 Bft) 95,74 %
14.07.2018 19:06 27,3 C 26,7 C 25,0 C 47 % 1015,6 hPa 0,0 l/m 2 min 0 min 403 W/m 11,3 km/h (2 Bft) 93,62 %
14.07.2018 19:08 27,3 C 26,7 C 25,0 C 47 % 1015,6 hPa 0,0 l/m 2 min 0 min 397 W/m 6,8 km/h (2 Bft) 95,74 %
14.07.2018 19:10 27,3 C 26,7 C 25,0 C 47 % 1015,6 hPa 0,0 l/m 2 min 0 min 392 W/m 9,0 km/h (2 Bft) 93,48 %
14.07.2018 19:12 27,2 C 26,7 C 25,0 C 47 % 1015,6 hPa 0,0 l/m 2 min 0 min 386 W/m 6,8 km/h (2 Bft) 95,74 %
14.07.2018 19:14 27,2 C 26,7 C 25,0 C 47 % 1015,5 hPa 0,0 l/m 2 min 0 min 376 W/m 15,8 km/h (3 Bft) 95,74 %
14.07.2018 19:16 27,1 C 26,7 C 24,4 C 47 % 1015,5 hPa 0,0 l/m 2 min 0 min 276 W/m 18,0 km/h (3 Bft) 95,74 %
14.07.2018 19:18 27,1 C 26,7 C 24,4 C 47 % 1015,5 hPa 0,0 l/m 0 min 0 min 112 W/m 11,3 km/h (2 Bft) 91,49 %
14.07.2018 19:20 27,1 C 26,7 C 24,4 C 47 % 1015,6 hPa 0,0 l/m 2 min 0 min 174 W/m 11,3 km/h (2 Bft) 95,74 %
14.07.2018 19:22 27,0 C 26,1 C 24,4 C 47 % 1015,6 hPa 0,0 l/m 2 min 0 min 281 W/m 9,0 km/h (2 Bft) 95,65 %
14.07.2018 19:24 26,9 C 26,1 C 24,4 C 47 % 1015,5 hPa 0,0 l/m 2 min 0 min 329 W/m 11,3 km/h (2 Bft) 95,83 %
14.07.2018 19:26 26,9 C 26,1 C 24,4 C 47 % 1015,5 hPa 0,0 l/m 2 min 0 min 345 W/m 9,0 km/h (2 Bft) 93,62 %
14.07.2018 19:28 26,9 C 26,1 C 24,4 C 47 % 1015,5 hPa 0,0 l/m 2 min 0 min 345 W/m 18,0 km/h (3 Bft) 95,74 %
14.07.2018 19:30 26,8 C 26,1 C 24,4 C 48 % 1015,4 hPa 0,0 l/m 2 min 0 min 341 W/m 11,3 km/h (2 Bft) 95,74 %
14.07.2018 19:32 26,8 C 26,1 C 24,4 C 47 % 1015,4 hPa 0,0 l/m 2 min 0 min 333 W/m 11,3 km/h (2 Bft) 95,65 %
14.07.2018 19:34 26,8 C 26,1 C 24,4 C 47 % 1015,5 hPa 0,0 l/m 2 min 0 min 322 W/m 11,3 km/h (2 Bft) 93,62 %
14.07.2018 19:36 26,7 C 26,1 C 24,4 C 48 % 1015,6 hPa 0,0 l/m 2 min 0 min 321 W/m 13,5 km/h (3 Bft) 95,74 %
14.07.2018 19:38 26,7 C 25,6 C 23,9 C 48 % 1015,5 hPa 0,0 l/m 2 min 0 min 314 W/m 11,3 km/h (2 Bft) 95,74 %
14.07.2018 19:40 26,6 C 25,6 C 23,9 C 48 % 1015,4 hPa 0,0 l/m 2 min 0 min 312 W/m 6,8 km/h (2 Bft) 97,87 %
14.07.2018 19:42 26,5 C 25,6 C 23,9 C 48 % 1015,4 hPa 0,0 l/m 2 min 0 min 310 W/m 9,0 km/h (2 Bft) 97,87 %
14.07.2018 19:44 26,4 C 25,6 C 23,9 C 48 % 1015,4 hPa 0,0 l/m 2 min 0 min 304 W/m 9,0 km/h (2 Bft) 93,62 %
14.07.2018 19:46 26,3 C 25,6 C 23,9 C 48 % 1015,3 hPa 0,0 l/m 2 min 0 min 293 W/m 6,8 km/h (2 Bft) 97,83 %
14.07.2018 19:48 26,3 C 25,6 C 23,9 C 48 % 1015,4 hPa 0,0 l/m 2 min 0 min 273 W/m 11,3 km/h (2 Bft) 97,87 %
14.07.2018 19:50 26,2 C 25,0 C 23,9 C 48 % 1015,3 hPa 0,0 l/m 2 min 0 min 217 W/m 11,3 km/h (2 Bft) 97,87 %
14.07.2018 19:52 26,1 C 25,0 C 23,9 C 47 % 1015,3 hPa 0,0 l/m 0 min 0 min 84 W/m 9,0 km/h (2 Bft) 97,87 %
14.07.2018 19:54 26,1 C 25,0 C 23,9 C 48 % 1015,4 hPa 0,0 l/m 0 min 0 min 45 W/m 9,0 km/h (2 Bft) 100,00 %
14.07.2018 19:56 26,0 C 25,0 C 23,9 C 48 % 1015,4 hPa 0,0 l/m 0 min 0 min 44 W/m 13,5 km/h (3 Bft) 100,00 %
14.07.2018 19:58 25,9 C 25,0 C 23,9 C 48 % 1015,3 hPa 0,0 l/m 0 min 0 min 43 W/m 4,5 km/h (1 Bft) 95,74 %
14.07.2018 20:00 25,9 C 25,0 C 23,9 C 48 % 1015,4 hPa 0,0 l/m 0 min 0 min 42 W/m 6,8 km/h (2 Bft) 97,87 %
14.07.2018 20:02 25,9 C 25,0 C 23,9 C 48 % 1015,4 hPa 0,0 l/m 0 min 0 min 42 W/m 9,0 km/h (2 Bft) 100,00 %
14.07.2018 20:04 25,8 C 25,0 C 23,3 C 48 % 1015,5 hPa 0,0 l/m 0 min 0 min 42 W/m 9,0 km/h (2 Bft) 100,00 %
14.07.2018 20:06 25,8 C 25,0 C 23,3 C 48 % 1015,5 hPa 0,0 l/m 0 min 0 min 41 W/m 6,8 km/h (2 Bft) 91,49 %
14.07.2018 20:08 25,7 C 24,4 C 22,8 C 49 % 1015,5 hPa 0,0 l/m 0 min 0 min 40 W/m 11,3 km/h (2 Bft) 97,83 %
14.07.2018 20:10 25,7 C 24,4 C 23,3 C 49 % 1015,5 hPa 0,0 l/m 0 min 0 min 40 W/m 11,3 km/h (2 Bft) 97,87 %
14.07.2018 20:12 25,6 C 24,4 C 23,3 C 49 % 1015,5 hPa 0,0 l/m 0 min 0 min 39 W/m 11,3 km/h (2 Bft) 100,00 %
14.07.2018 20:14 25,6 C 24,4 C 23,3 C 50 % 1015,5 hPa 0,0 l/m 0 min 0 min 39 W/m 13,5 km/h (3 Bft) 100,00 %
14.07.2018 20:16 25,5 C 24,4 C 23,3 C 49 % 1015,5 hPa 0,0 l/m 0 min 0 min 38 W/m 9,0 km/h (2 Bft) 97,87 %
14.07.2018 20:18 25,4 C 24,4 C 23,3 C 50 % 1015,5 hPa 0,0 l/m 0 min 0 min 37 W/m 15,8 km/h (3 Bft) 97,87 %
14.07.2018 20:20 25,4 C 23,9 C 22,8 C 50 % 1015,5 hPa 0,0 l/m 0 min 0 min 37 W/m 6,8 km/h (2 Bft) 100,00 %
14.07.2018 20:22 25,3 C 23,9 C 22,8 C 50 % 1015,4 hPa 0,0 l/m 0 min 0 min 35 W/m 6,8 km/h (2 Bft) 100,00 %
14.07.2018 20:24 25,3 C 23,9 C 22,8 C 50 % 1015,4 hPa 0,0 l/m 0 min 0 min 35 W/m 15,8 km/h (3 Bft) 97,87 %
14.07.2018 20:26 25,2 C 23,9 C 22,8 C 51 % 1015,4 hPa 0,0 l/m 0 min 0 min 34 W/m 4,5 km/h (1 Bft) 97,87 %
14.07.2018 20:28 25,2 C 23,9 C 22,8 C 51 % 1015,4 hPa 0,0 l/m 0 min 0 min 33 W/m 15,8 km/h (3 Bft) 97,87 %
14.07.2018 20:30 25,1 C 23,9 C 22,8 C 51 % 1015,4 hPa 0,0 l/m 0 min 0 min 33 W/m 6,8 km/h (2 Bft) 97,87 %
14.07.2018 20:32 25,1 C 23,9 C 22,8 C 50 % 1015,5 hPa 0,0 l/m 0 min 0 min 32 W/m 9,0 km/h (2 Bft) 93,48 %
14.07.2018 20:34 25,1 C 23,9 C 22,8 C 51 % 1015,5 hPa 0,0 l/m 0 min 0 min 32 W/m 6,8 km/h (2 Bft) 95,74 %
14.07.2018 20:36 24,9 C 23,3 C 22,8 C 50 % 1015,5 hPa 0,0 l/m 0 min 0 min 30 W/m 9,0 km/h (2 Bft) 95,74 %
14.07.2018 20:38 24,9 C 23,3 C 22,8 C 51 % 1015,4 hPa 0,0 l/m 0 min 0 min 30 W/m 6,8 km/h (2 Bft) 97,87 %
14.07.2018 20:40 24,8 C 23,3 C 22,8 C 51 % 1015,4 hPa 0,0 l/m 0 min 0 min 28 W/m 11,3 km/h (2 Bft) 97,87 %
14.07.2018 20:42 24,8 C 23,3 C 22,8 C 51 % 1015,4 hPa 0,0 l/m 0 min 0 min 28 W/m 6,8 km/h (2 Bft) 97,87 %
14.07.2018 20:44 24,7 C 23,3 C 22,8 C 51 % 1015,5 hPa 0,0 l/m 0 min 0 min 26 W/m 9,0 km/h (2 Bft) 97,83 %
14.07.2018 20:46 24,7 C 23,3 C 22,8 C 51 % 1015,4 hPa 0,0 l/m 0 min 0 min 26 W/m 6,8 km/h (2 Bft) 97,87 %
14.07.2018 20:48 24,6 C 23,3 C 22,2 C 51 % 1015,5 hPa 0,0 l/m 0 min 0 min 25 W/m 4,5 km/h (1 Bft) 97,87 %
14.07.2018 20:50 24,6 C 23,3 C 22,2 C 51 % 1015,5 hPa 0,0 l/m 0 min 0 min 25 W/m 4,5 km/h (1 Bft) 97,87 %
14.07.2018 20:52 24,5 C 23,3 C 22,2 C 51 % 1015,4 hPa 0,0 l/m 0 min 0 min 25 W/m 6,8 km/h (2 Bft) 97,87 %
14.07.2018 20:54 24,4 C 23,3 C 22,2 C 51 % 1015,5 hPa 0,0 l/m 0 min 0 min 23 W/m 6,8 km/h (2 Bft) 97,83 %
14.07.2018 20:56 24,4 C 23,3 C 22,8 C 51 % 1015,5 hPa 0,0 l/m 0 min 0 min 23 W/m 15,8 km/h (3 Bft) 97,87 %
14.07.2018 20:58 24,4 C 23,3 C 22,2 C 52 % 1015,5 hPa 0,0 l/m 0 min 0 min 21 W/m 6,8 km/h (2 Bft) 97,87 %
14.07.2018 21:00 24,3 C 22,8 C 22,2 C 52 % 1015,5 hPa 0,0 l/m 0 min 0 min 21 W/m 6,8 km/h (2 Bft) 97,87 %
14.07.2018 21:02 24,3 C 22,8 C 22,2 C 52 % 1015,5 hPa 0,0 l/m 0 min 0 min 21 W/m 4,5 km/h (1 Bft) 97,87 %
14.07.2018 21:04 24,3 C 22,8 C 21,7 C 53 % 1015,5 hPa 0,0 l/m 0 min 0 min 19 W/m 4,5 km/h (1 Bft) 97,87 %
14.07.2018 21:06 24,2 C 22,8 C 21,7 C 53 % 1015,5 hPa 0,0 l/m 0 min 0 min 19 W/m 6,8 km/h (2 Bft) 93,48 %
14.07.2018 21:08 24,2 C 22,8 C 22,2 C 52 % 1015,5 hPa 0,0 l/m 0 min 0 min 19 W/m 9,0 km/h (2 Bft) 95,74 %
14.07.2018 21:10 24,1 C 22,8 C 22,2 C 53 % 1015,5 hPa 0,0 l/m 0 min 0 min 18 W/m 6,8 km/h (2 Bft) 97,87 %
14.07.2018 21:12 24,1 C 22,8 C 22,2 C 52 % 1015,5 hPa 0,0 l/m 0 min 0 min 18 W/m 6,8 km/h (2 Bft) 97,87 %
14.07.2018 21:14 24,0 C 22,8 C 21,7 C 54 % 1015,5 hPa 0,0 l/m 0 min 0 min 17 W/m 9,0 km/h (2 Bft) 97,87 %
14.07.2018 21:16 23,9 C 22,2 C 21,7 C 53 % 1015,5 hPa 0,0 l/m 0 min 0 min 16 W/m 6,8 km/h (2 Bft) 100,00 %
14.07.2018 21:18 23,8 C 22,8 C 21,7 C 54 % 1015,5 hPa 0,0 l/m 0 min 0 min 16 W/m 6,8 km/h (2 Bft) 97,83 %
14.07.2018 21:20 23,8 C 22,2 C 21,7 C 54 % 1015,5 hPa 0,0 l/m 0 min 0 min 15 W/m 11,3 km/h (2 Bft) 100,00 %
14.07.2018 21:22 23,8 C 22,2 C 21,7 C 54 % 1015,6 hPa 0,0 l/m 0 min 0 min 14 W/m 9,0 km/h (2 Bft) 100,00 %
14.07.2018 21:24 23,7 C 22,2 C 21,7 C 54 % 1015,5 hPa 0,0 l/m 0 min 0 min 14 W/m 6,8 km/h (2 Bft) 100,00 %
14.07.2018 21:26 23,7 C 22,2 C 21,7 C 54 % 1015,6 hPa 0,0 l/m 0 min 0 min 12 W/m 4,5 km/h (1 Bft) 100,00 %
14.07.2018 21:28 23,6 C 22,2 C 21,7 C 55 % 1015,6 hPa 0,0 l/m 0 min 0 min 12 W/m 4,5 km/h (1 Bft) 97,87 %
14.07.2018 21:30 23,6 C 22,2 C 21,7 C 55 % 1015,7 hPa 0,0 l/m 0 min 0 min 11 W/m 6,8 km/h (2 Bft) 97,83 %
14.07.2018 21:32 23,5 C 22,2 C 21,7 C 55 % 1015,6 hPa 0,0 l/m 0 min 0 min 11 W/m 4,5 km/h (1 Bft) 97,87 %
14.07.2018 21:34 23,5 C 21,7 C 21,7 C 55 % 1015,7 hPa 0,0 l/m 0 min 0 min 11 W/m 11,3 km/h (2 Bft) 97,87 %
14.07.2018 21:36 23,4 C 21,7 C 21,7 C 55 % 1015,8 hPa 0,0 l/m 0 min 0 min 9 W/m 4,5 km/h (1 Bft) 97,87 %
14.07.2018 21:38 23,4 C 21,7 C 21,1 C 56 % 1015,8 hPa 0,0 l/m 0 min 0 min 9 W/m 2,3 km/h (1 Bft) 95,74 %
14.07.2018 21:40 23,4 C 21,7 C 21,1 C 56 % 1015,7 hPa 0,0 l/m 0 min 0 min 8 W/m 6,8 km/h (2 Bft) 97,83 %
14.07.2018 21:42 23,3 C 21,7 C 21,1 C 56 % 1015,8 hPa 0,0 l/m 0 min 0 min 7 W/m 2,3 km/h (1 Bft) 97,87 %
14.07.2018 21:44 23,3 C 21,1 C 20,6 C 57 % 1015,8 hPa 0,0 l/m 0 min 0 min 7 W/m 2,3 km/h (1 Bft) 95,74 %
14.07.2018 21:46 23,3 C 21,1 C 20,6 C 57 % 1015,8 hPa 0,0 l/m 0 min 0 min 5 W/m 2,3 km/h (1 Bft) 95,74 %
14.07.2018 21:48 23,2 C 21,1 C 20,6 C 57 % 1015,8 hPa 0,0 l/m 0 min 0 min 5 W/m 2,3 km/h (1 Bft) 97,87 %
14.07.2018 21:50 23,2 C 21,1 C 20,6 C 56 % 1015,8 hPa 0,0 l/m 0 min 0 min 5 W/m 4,5 km/h (1 Bft) 97,87 %
14.07.2018 21:52 23,1 C 21,1 C 20,6 C 56 % 1015,8 hPa 0,0 l/m 0 min 0 min 4 W/m 6,8 km/h (2 Bft) 97,83 %
14.07.2018 21:54 23,1 C 21,1 C 20,6 C 56 % 1015,8 hPa 0,0 l/m 0 min 0 min 0 W/m 4,5 km/h (1 Bft) 97,87 %
14.07.2018 21:56 23,0 C 21,1 C 20,6 C 56 % 1015,8 hPa 0,0 l/m 0 min 0 min 0 W/m 2,3 km/h (1 Bft) 97,87 %
14.07.2018 21:58 22,9 C 21,1 C 20,6 C 57 % 1015,9 hPa 0,0 l/m 0 min 0 min 0 W/m 2,3 km/h (1 Bft) 97,87 %
14.07.2018 22:00 22,9 C 21,1 C 20,0 C 57 % 1015,8 hPa 0,0 l/m 0 min 0 min 0 W/m 4,5 km/h (1 Bft) 97,87 %
14.07.2018 22:02 22,8 C 20,6 C 20,0 C 57 % 1015,8 hPa 0,0 l/m 0 min 0 min 0 W/m 2,3 km/h (1 Bft) 95,74 %
14.07.2018 22:04 22,8 C 21,1 C 20,0 C 57 % 1015,8 hPa 0,0 l/m 0 min 0 min 0 W/m 9,0 km/h (2 Bft) 97,83 %
14.07.2018 22:06 22,7 C 21,1 C 20,6 C 56 % 1015,9 hPa 0,0 l/m 0 min 0 min 0 W/m 6,8 km/h (2 Bft) 97,87 %
14.07.2018 22:08 22,7 C 21,1 C 20,6 C 56 % 1015,9 hPa 0,0 l/m 0 min 0 min 0 W/m 2,3 km/h (1 Bft) 97,87 %
14.07.2018 22:10 22,7 C 20,6 C 20,6 C 57 % 1015,9 hPa 0,0 l/m 0 min 0 min 0 W/m 2,3 km/h (1 Bft) 95,74 %
14.07.2018 22:12 22,6 C 20,6 C 20,0 C 58 % 1015,9 hPa 0,0 l/m 0 min 0 min 0 W/m 4,5 km/h (1 Bft) 97,87 %
14.07.2018 22:14 22,6 C 20,6 C 20,0 C 57 % 1015,9 hPa 0,0 l/m 0 min 0 min 0 W/m 2,3 km/h (1 Bft) 97,87 %
14.07.2018 22:16 22,5 C 20,6 C 20,0 C 57 % 1015,8 hPa 0,0 l/m 0 min 0 min 0 W/m 4,5 km/h (1 Bft) 97,83 %
14.07.2018 22:18 22,4 C 20,6 C 20,0 C 57 % 1015,8 hPa 0,0 l/m 0 min 0 min 0 W/m 6,8 km/h (2 Bft) 97,87 %
14.07.2018 22:20 22,3 C 21,1 C 20,6 C 57 % 1015,8 hPa 0,0 l/m 0 min 0 min 0 W/m 11,3 km/h (2 Bft) 97,87 %
14.07.2018 22:22 22,3 C 20,6 C 20,6 C 57 % 1015,9 hPa 0,0 l/m 0 min 0 min 0 W/m 4,5 km/h (1 Bft) 97,92 %
14.07.2018 22:24 22,2 C 20,6 C 20,6 C 57 % 1015,9 hPa 0,0 l/m 0 min 0 min 0 W/m 2,3 km/h (1 Bft) 95,74 %
14.07.2018 22:26 22,2 C 20,6 C 20,0 C 57 % 1015,9 hPa 0,0 l/m 0 min 0 min 0 W/m 2,3 km/h (1 Bft) 97,87 %
14.07.2018 22:28 22,2 C 20,6 C 20,0 C 58 % 1015,9 hPa 0,0 l/m 0 min 0 min 0 W/m 2,3 km/h (1 Bft) 97,83 %
14.07.2018 22:30 22,1 C 20,6 C 20,0 C 58 % 1015,9 hPa 0,0 l/m 0 min 0 min 0 W/m 4,5 km/h (1 Bft) 97,87 %
14.07.2018 22:32 22,1 C 20,6 C 20,0 C 57 % 1015,9 hPa 0,0 l/m 0 min 0 min 0 W/m 4,5 km/h (1 Bft) 97,87 %
14.07.2018 22:34 22,1 C 20,6 C 20,0 C 57 % 1015,9 hPa 0,0 l/m 0 min 0 min 0 W/m 4,5 km/h (1 Bft) 95,74 %
14.07.2018 22:36 22,0 C 20,6 C 20,0 C 58 % 1015,9 hPa 0,0 l/m 0 min 0 min 0 W/m 6,8 km/h (2 Bft) 97,92 %
14.07.2018 22:38 21,9 C 20,6 C 20,0 C 57 % 1015,9 hPa 0,0 l/m 0 min 0 min 0 W/m 6,8 km/h (2 Bft) 97,87 %
14.07.2018 22:40 21,9 C 20,6 C 20,0 C 58 % 1015,9 hPa 0,0 l/m 0 min 0 min 0 W/m 2,3 km/h (1 Bft) 97,83 %
14.07.2018 22:42 21,9 C 20,0 C 19,4 C 59 % 1016,0 hPa 0,0 l/m 0 min 0 min 0 W/m 2,3 km/h (1 Bft) 97,87 %
14.07.2018 22:44 21,8 C 20,0 C 19,4 C 58 % 1016,0 hPa 0,0 l/m 0 min 0 min 0 W/m 2,3 km/h (1 Bft) 95,74 %
14.07.2018 22:46 21,8 C 20,0 C 19,4 C 58 % 1016,0 hPa 0,0 l/m 0 min 0 min 0 W/m 2,3 km/h (1 Bft) 97,87 %
14.07.2018 22:48 21,8 C 20,0 C 19,4 C 59 % 1016,0 hPa 0,0 l/m 0 min 0 min 0 W/m 0,0 km/h (0 Bft) 97,87 %
14.07.2018 22:50 21,7 C 20,0 C 19,4 C 59 % 1015,9 hPa 0,0 l/m 0 min 0 min 0 W/m 2,3 km/h (1 Bft) 97,87 %
14.07.2018 22:52 21,7 C 20,0 C 19,4 C 59 % 1016,0 hPa 0,0 l/m 0 min 0 min 0 W/m 2,3 km/h (1 Bft) 93,48 %
14.07.2018 22:54 21,7 C 19,4 C 19,4 C 59 % 1016,0 hPa 0,0 l/m 0 min 0 min 0 W/m 2,3 km/h (1 Bft) 97,87 %
14.07.2018 22:56 21,6 C 19,4 C 19,4 C 59 % 1016,0 hPa 0,0 l/m 0 min 0 min 0 W/m 2,3 km/h (1 Bft) 95,74 %
14.07.2018 22:58 21,6 C 20,0 C 19,4 C 59 % 1016,0 hPa 0,0 l/m 0 min 0 min 0 W/m 4,5 km/h (1 Bft) 95,74 %
14.07.2018 23:00 21,5 C 19,4 C 18,9 C 59 % 1015,9 hPa 0,0 l/m 0 min 0 min 0 W/m 4,5 km/h (1 Bft) 97,87 %
14.07.2018 23:02 21,5 C 19,4 C 19,4 C 59 % 1016,0 hPa 0,0 l/m 0 min 0 min 0 W/m 2,3 km/h (1 Bft) 93,48 %
14.07.2018 23:04 21,4 C 19,4 C 18,9 C 60 % 1016,0 hPa 0,0 l/m 0 min 0 min 0 W/m 2,3 km/h (1 Bft) 95,74 %
14.07.2018 23:06 21,4 C 19,4 C 18,9 C 60 % 1016,0 hPa 0,0 l/m 0 min 0 min 0 W/m 4,5 km/h (1 Bft) 97,87 %
14.07.2018 23:08 21,3 C 19,4 C 18,9 C 60 % 1016,0 hPa 0,0 l/m 0 min 0 min 0 W/m 4,5 km/h (1 Bft) 97,87 %
14.07.2018 23:10 21,3 C 19,4 C 19,4 C 60 % 1016,0 hPa 0,0 l/m 0 min 0 min 0 W/m 4,5 km/h (1 Bft) 97,87 %
14.07.2018 23:12 21,2 C 19,4 C 19,4 C 60 % 1016,0 hPa 0,0 l/m 0 min 0 min 0 W/m 2,3 km/h (1 Bft) 95,74 %
14.07.2018 23:14 21,2 C 19,4 C 19,4 C 60 % 1016,0 hPa 0,0 l/m 0 min 0 min 0 W/m 2,3 km/h (1 Bft) 95,65 %
14.07.2018 23:16 21,1 C 19,4 C 18,9 C 60 % 1015,9 hPa 0,0 l/m 0 min 0 min 0 W/m 2,3 km/h (1 Bft) 97,87 %
14.07.2018 23:18 21,1 C 19,4 C 18,9 C 60 % 1016,0 hPa 0,0 l/m 0 min 0 min 0 W/m 2,3 km/h (1 Bft) 95,74 %
14.07.2018 23:20 21,0 C 19,4 C 18,9 C 61 % 1016,0 hPa 0,0 l/m 0 min 0 min 0 W/m 4,5 km/h (1 Bft) 93,62 %
14.07.2018 23:22 21,0 C 19,4 C 18,9 C 61 % 1016,0 hPa 0,0 l/m 0 min 0 min 0 W/m 4,5 km/h (1 Bft) 95,74 %
14.07.2018 23:24 20,9 C 19,4 C 18,9 C 61 % 1016,0 hPa 0,0 l/m 0 min 0 min 0 W/m 4,5 km/h (1 Bft) 97,87 %
14.07.2018 23:26 20,9 C 18,9 C 18,9 C 62 % 1015,9 hPa 0,0 l/m 0 min 0 min 0 W/m 4,5 km/h (1 Bft) 95,65 %
14.07.2018 23:28 20,8 C 18,9 C 18,9 C 61 % 1016,0 hPa 0,0 l/m 0 min 0 min 0 W/m 2,3 km/h (1 Bft) 97,87 %
14.07.2018 23:30 20,8 C 18,9 C 18,9 C 61 % 1016,1 hPa 0,0 l/m 0 min 0 min 0 W/m 2,3 km/h (1 Bft) 97,87 %
14.07.2018 23:32 20,7 C 18,9 C 18,9 C 61 % 1016,0 hPa 0,0 l/m 0 min 0 min 0 W/m 6,8 km/h (2 Bft) 95,74 %
14.07.2018 23:34 20,7 C 18,9 C 18,9 C 61 % 1016,1 hPa 0,0 l/m 0 min 0 min 0 W/m 4,5 km/h (1 Bft) 97,87 %
14.07.2018 23:36 20,6 C 18,9 C 18,9 C 62 % 1016,1 hPa 0,0 l/m 0 min 0 min 0 W/m 9,0 km/h (2 Bft) 97,87 %
14.07.2018 23:38 20,6 C 18,9 C 18,9 C 62 % 1016,1 hPa 0,0 l/m 0 min 0 min 0 W/m 4,5 km/h (1 Bft) 97,83 %
14.07.2018 23:40 20,6 C 18,9 C 18,9 C 63 % 1016,1 hPa 0,0 l/m 0 min 0 min 0 W/m 4,5 km/h (1 Bft) 95,74 %
14.07.2018 23:42 20,5 C 18,9 C 18,9 C 63 % 1016,1 hPa 0,0 l/m 0 min 0 min 0 W/m 4,5 km/h (1 Bft) 97,87 %
14.07.2018 23:44 20,4 C 18,9 C 18,9 C 63 % 1016,1 hPa 0,0 l/m 0 min 0 min 0 W/m 4,5 km/h (1 Bft) 97,87 %
14.07.2018 23:46 20,4 C 18,9 C 18,9 C 63 % 1016,2 hPa 0,0 l/m 0 min 0 min 0 W/m 6,8 km/h (2 Bft) 97,87 %
14.07.2018 23:48 20,4 C 18,9 C 18,9 C 63 % 1016,2 hPa 0,0 l/m 0 min 0 min 0 W/m 2,3 km/h (1 Bft) 97,87 %
14.07.2018 23:50 20,3 C 18,9 C 18,9 C 63 % 1016,1 hPa 0,0 l/m 0 min 0 min 0 W/m 2,3 km/h (1 Bft) 95,65 %
14.07.2018 23:52 20,3 C 18,9 C 18,9 C 63 % 1016,1 hPa 0,0 l/m 0 min 0 min 0 W/m 2,3 km/h (1 Bft) 93,62 %
14.07.2018 23:54 20,3 C 18,9 C 18,9 C 63 % 1016,1 hPa 0,0 l/m 0 min 0 min 0 W/m 4,5 km/h (1 Bft) 97,87 %
14.07.2018 23:56 20,2 C 18,9 C 18,9 C 63 % 1016,1 hPa 0,0 l/m 0 min 0 min 0 W/m 6,8 km/h (2 Bft) 97,87 %
14.07.2018 23:58 20,2 C 18,9 C 18,9 C 63 % 1016,1 hPa 0,0 l/m 0 min 0 min 0 W/m 4,5 km/h (1 Bft) 97,87 %
_ Min-Zeit 06:50 05:52 05:12 17:20 19:46 - - - - 00:40 00:20
Minimum _ 15,5 C 14,4 C 15,0 C 44 % 1015,3 hPa - - - - 0,0 km/h (0 Bft) 91,49 %
_ Max-Zeit 17:36 12:44 17:58 07:34 09:28 00:00 09:38 00:00 13:50 14:02 01:08
Maximum _ 28,2 C 35,6 C 26,1 C 92 % 1018,6 hPa 0,0 l/m 4 min 0 min 943 W/m 20,3 km/h
O-NO (4 Bft)
100,00 %
Durchschnitt _ 22,0 C 22,7 C 20,2 C 68 % 1017,1 hPa #0,0 l/m #11:24 h #0 min. 469 W/m 6,7 km/h (2 Bft) 97,52 %
© 2018 W. Hausmann